| time (UTC) | temp F | wind direction | speed MPH | gust MPH | rain 1hr in | rain 24hr in | rain mn in | humidity % | barometer mb |
| 20260508105004 | 65 | 180 | 0.0 | 2.0 | 0.00 | 0.22 | 0.20 | 61 | 1006.4 |
| 20260508104904 | 65 | 180 | 0.0 | 2.0 | 0.00 | 0.22 | 0.20 | 61 | 1006.5 |
| 20260508104804 | 65 | 180 | 0.0 | 2.0 | 0.00 | 0.22 | 0.20 | 61 | 1006.3 |
| 20260508104704 | 66 | 182 | 0.0 | 2.0 | 0.00 | 0.22 | 0.20 | 61 | 1006.4 |
| 20260508104604 | 66 | 186 | 0.0 | 2.0 | 0.00 | 0.22 | 0.20 | 61 | 1006.5 |
| 20260508104504 | 66 | 175 | 1.0 | 2.0 | 0.00 | 0.22 | 0.20 | 61 | 1006.5 |
| 20260508104404 | 66 | 169 | 1.0 | 2.0 | 0.00 | 0.22 | 0.20 | 61 | 1006.6 |
| 20260508104304 | 66 | 168 | 1.0 | 2.0 | 0.00 | 0.22 | 0.20 | 61 | 1006.5 |
| 20260508104203 | 66 | 166 | 1.0 | 2.0 | 0.00 | 0.22 | 0.20 | 61 | 1006.5 |
| 20260508104103 | 67 | 159 | 1.0 | 2.0 | 0.00 | 0.22 | 0.20 | 61 | 1006.5 |
| 20260508104003 | 67 | 155 | 1.0 | 2.0 | 0.00 | 0.22 | 0.20 | 61 | 1006.4 |
| 20260508103903 | 67 | 167 | 1.0 | 3.0 | 0.00 | 0.22 | 0.20 | 61 | 1006.5 |
| 20260508103803 | 67 | 163 | 1.0 | 3.0 | 0.00 | 0.22 | 0.20 | 61 | 1006.6 |
| 20260508103703 | 67 | 156 | 2.0 | 3.0 | 0.00 | 0.22 | 0.20 | 61 | 1006.5 |
| 20260508103603 | 67 | 154 | 1.0 | 3.0 | 0.00 | 0.22 | 0.20 | 61 | 1006.5 |
| 20260508103503 | 67 | 156 | 1.0 | 3.0 | 0.00 | 0.22 | 0.20 | 61 | 1006.6 |
| 20260508103403 | 68 | 159 | 1.0 | 3.0 | 0.00 | 0.22 | 0.20 | 61 | 1006.5 |
| 20260508103303 | 68 | 160 | 1.0 | 3.0 | 0.00 | 0.22 | 0.20 | 61 | 1006.5 |
| 20260508103203 | 68 | 156 | 1.0 | 3.0 | 0.00 | 0.22 | 0.20 | 61 | 1006.6 |
| 20260508103103 | 68 | 157 | 2.0 | 3.0 | 0.00 | 0.22 | 0.20 | 62 | 1006.5 |
| 20260508103004 | 69 | 154 | 2.0 | 3.0 | 0.00 | 0.22 | 0.20 | 62 | 1006.5 |
| 20260508102904 | 69 | 148 | 2.0 | 3.0 | 0.00 | 0.22 | 0.20 | 63 | 1006.4 |
| 20260508102804 | 69 | 147 | 1.0 | 3.0 | 0.00 | 0.22 | 0.20 | 63 | 1006.5 |
| 20260508102704 | 69 | 152 | 1.0 | 3.0 | 0.00 | 0.22 | 0.20 | 63 | 1006.6 |
| 20260508102604 | 69 | 151 | 1.0 | 5.0 | 0.00 | 0.22 | 0.20 | 63 | 1006.6 |
| 20260508102504 | 70 | 152 | 2.0 | 5.0 | 0.00 | 0.22 | 0.20 | 63 | 1006.4 |
| 20260508102404 | 70 | 152 | 2.0 | 5.0 | 0.00 | 0.22 | 0.20 | 64 | 1006.5 |
| 20260508102306 | 70 | 151 | 2.0 | 5.0 | 0.00 | 0.22 | 0.20 | 64 | 1006.6 |
| 20260508102204 | 70 | 156 | 2.0 | 5.0 | 0.00 | 0.22 | 0.20 | 64 | 1006.6 |
| 20260508102104 | 70 | 159 | 2.0 | 5.0 | 0.00 | 0.22 | 0.20 | 65 | 1006.6 |
| 20260508102004 | 70 | 165 | 2.0 | 5.0 | 0.00 | 0.22 | 0.20 | 65 | 1006.6 |
| 20260508101703 | 70 | 166 | 2.0 | 5.0 | 0.00 | 0.22 | 0.20 | 65 | 1006.6 |
| 20260508101603 | 70 | 164 | 2.0 | 4.0 | 0.00 | 0.22 | 0.20 | 66 | 1006.6 |
| 20260508101503 | 70 | 159 | 3.0 | 4.0 | 0.00 | 0.22 | 0.20 | 66 | 1006.6 |
| 20260508101403 | 70 | 159 | 3.0 | 4.0 | 0.00 | 0.22 | 0.20 | 66 | 1006.6 |
| 20260508101203 | 70 | 161 | 2.0 | 4.0 | 0.00 | 0.22 | 0.20 | 67 | 1006.5 |
| 20260508101103 | 70 | 160 | 2.0 | 4.0 | 0.00 | 0.22 | 0.20 | 68 | 1006.7 |
| 20260508101003 | 70 | 157 | 2.0 | 4.0 | 0.00 | 0.22 | 0.20 | 69 | 1006.6 |
| 20260508100903 | 70 | 162 | 2.0 | 4.0 | 0.00 | 0.22 | 0.20 | 70 | 1006.6 |
| 20260508100803 | 70 | 164 | 2.0 | 4.0 | 0.00 | 0.22 | 0.20 | 71 | 1006.6 |
| 20260508100703 | 70 | 163 | 2.0 | 4.0 | 0.00 | 0.22 | 0.20 | 71 | 1006.6 |
| 20260508100603 | 70 | 166 | 2.0 | 4.0 | 0.00 | 0.22 | 0.20 | 71 | 1006.8 |
| 20260508100503 | 68 | 174 | 1.0 | 2.0 | 0.00 | 0.22 | 0.20 | 72 | 1006.6 |
| 20260508100404 | 68 | 173 | 1.0 | 2.0 | 0.00 | 0.22 | 0.20 | 72 | 1006.7 |
| 20260508100304 | 68 | 172 | 1.0 | 2.0 | 0.00 | 0.22 | 0.20 | 72 | 1006.6 |
| 20260508100204 | 68 | 169 | 1.0 | 2.0 | 0.00 | 0.22 | 0.20 | 72 | 1006.8 |
| 20260508100104 | 68 | 167 | 1.0 | 2.0 | 0.00 | 0.22 | 0.20 | 72 | 1006.8 |
| 20260508100004 | 68 | 164 | 1.0 | 2.0 | 0.00 | 0.22 | 0.20 | 72 | 1006.6 |
| 20260508095904 | 68 | 161 | 1.0 | 2.0 | 0.00 | 0.22 | 0.20 | 73 | 1006.8 |
| 20260508095804 | 68 | 154 | 0.0 | 2.0 | 0.00 | 0.22 | 0.20 | 73 | 1006.8 |
| 20260508095704 | 68 | 172 | 0.0 | 1.0 | 0.00 | 0.22 | 0.20 | 73 | 1006.6 |
| 20260508095604 | 68 | 174 | 0.0 | 1.0 | 0.00 | 0.22 | 0.20 | 74 | 1006.8 |
| 20260508095504 | 68 | 184 | 0.0 | 1.0 | 0.00 | 0.22 | 0.20 | 74 | 1006.7 |
| 20260508095404 | 68 | 184 | 0.0 | 1.0 | 0.00 | 0.22 | 0.20 | 74 | 1006.6 |
| 20260508095306 | 68 | 185 | 0.0 | 1.0 | 0.00 | 0.22 | 0.20 | 74 | 1006.8 |
| 20260508095204 | 67 | 194 | 0.0 | 1.0 | 0.00 | 0.22 | 0.20 | 74 | 1006.8 |
| 20260508095104 | 67 | 194 | 0.0 | 1.0 | 0.00 | 0.22 | 0.20 | 75 | 1006.8 |
| 20260508095003 | 67 | 197 | 0.0 | 1.0 | 0.00 | 0.22 | 0.20 | 75 | 1006.8 |
| 20260508094904 | 67 | 198 | 0.0 | 1.0 | 0.01 | 0.22 | 0.20 | 75 | 1006.6 |
| 20260508094803 | 66 | 201 | 0.0 | 1.0 | 0.01 | 0.22 | 0.20 | 75 | 1006.7 |
| 20260508094703 | 66 | 216 | 0.0 | 1.0 | 0.01 | 0.22 | 0.20 | 75 | 1006.6 |
| 20260508094603 | 66 | 171 | 0.0 | 2.0 | 0.01 | 0.22 | 0.20 | 75 | 1006.7 |
| 20260508094503 | 66 | 150 | 0.0 | 2.0 | 0.01 | 0.22 | 0.20 | 76 | 1006.8 |
| 20260508094403 | 66 | 163 | 0.0 | 2.0 | 0.01 | 0.22 | 0.20 | 76 | 1006.7 |
| 20260508094303 | 66 | 150 | 0.0 | 3.0 | 0.01 | 0.22 | 0.20 | 76 | 1006.6 |
| 20260508094203 | 65 | 157 | 1.0 | 3.0 | 0.01 | 0.22 | 0.20 | 76 | 1006.6 |
| 20260508094103 | 65 | 146 | 1.0 | 3.0 | 0.01 | 0.22 | 0.20 | 76 | 1006.7 |
| 20260508094006 | 65 | 146 | 1.0 | 3.0 | 0.01 | 0.22 | 0.20 | 77 | 1006.6 |
| 20260508093903 | 65 | 146 | 1.0 | 3.0 | 0.01 | 0.22 | 0.20 | 77 | 1006.8 |
| 20260508093803 | 65 | 147 | 1.0 | 3.0 | 0.01 | 0.22 | 0.20 | 77 | 1006.7 |
| 20260508093703 | 65 | 151 | 1.0 | 3.0 | 0.01 | 0.22 | 0.20 | 77 | 1006.7 |
| 20260508093603 | 65 | 158 | 1.0 | 3.0 | 0.01 | 0.22 | 0.20 | 77 | 1006.7 |
| 20260508093503 | 64 | 156 | 1.0 | 3.0 | 0.01 | 0.22 | 0.20 | 77 | 1006.6 |
| 20260508093403 | 64 | 157 | 1.0 | 3.0 | 0.01 | 0.22 | 0.20 | 78 | 1006.6 |
| 20260508093303 | 64 | 168 | 1.0 | 3.0 | 0.01 | 0.22 | 0.20 | 78 | 1006.6 |
| 20260508093203 | 64 | 160 | 1.0 | 3.0 | 0.01 | 0.22 | 0.20 | 78 | 1006.6 |
| 20260508093104 | 64 | 163 | 1.0 | 2.0 | 0.01 | 0.22 | 0.20 | 78 | 1006.5 |
| 20260508093004 | 64 | 163 | 1.0 | 2.0 | 0.01 | 0.22 | 0.20 | 78 | 1006.6 |
| 20260508092905 | 64 | 163 | 1.0 | 2.0 | 0.01 | 0.22 | 0.20 | 79 | 1006.4 |
| 20260508092804 | 64 | 163 | 1.0 | 2.0 | 0.01 | 0.22 | 0.20 | 79 | 1006.4 |
| 20260508092704 | 64 | 163 | 1.0 | 2.0 | 0.01 | 0.22 | 0.20 | 79 | 1006.5 |
| 20260508092604 | 64 | 160 | 1.0 | 2.0 | 0.01 | 0.22 | 0.20 | 79 | 1006.6 |
| 20260508092504 | 64 | 160 | 1.0 | 2.0 | 0.01 | 0.22 | 0.20 | 80 | 1006.5 |
| 20260508092404 | 64 | 151 | 1.0 | 2.0 | 0.01 | 0.22 | 0.20 | 80 | 1006.5 |
| 20260508092312 | 64 | 145 | 0.0 | 2.0 | 0.01 | 0.22 | 0.20 | 80 | 1006.4 |
| 20260508092204 | 64 | 143 | 0.0 | 2.0 | 0.01 | 0.22 | 0.20 | 80 | 1006.4 |
| 20260508092104 | 63 | 162 | 0.0 | 2.0 | 0.01 | 0.22 | 0.20 | 83 | 1006.4 |
| 20260508092004 | 63 | 164 | 0.0 | 2.0 | 0.01 | 0.22 | 0.20 | 83 | 1006.4 |
| 20260508091703 | 63 | 162 | 1.0 | 2.0 | 0.01 | 0.22 | 0.20 | 83 | 1006.3 |
| 20260508091604 | 63 | 169 | 0.0 | 2.0 | 0.01 | 0.22 | 0.20 | 83 | 1006.3 |
| 20260508091503 | 63 | 155 | 1.0 | 4.0 | 0.01 | 0.22 | 0.20 | 83 | 1006.5 |
| 20260508091403 | 63 | 161 | 1.0 | 4.0 | 0.01 | 0.22 | 0.20 | 84 | 1006.3 |
| 20260508091303 | 63 | 165 | 1.0 | 4.0 | 0.01 | 0.22 | 0.20 | 84 | 1006.5 |
| 20260508091203 | 63 | 167 | 1.0 | 4.0 | 0.01 | 0.22 | 0.20 | 84 | 1006.4 |
| 20260508091103 | 63 | 169 | 2.0 | 4.0 | 0.01 | 0.22 | 0.20 | 84 | 1006.3 |
| 20260508091003 | 63 | 169 | 2.0 | 4.0 | 0.01 | 0.22 | 0.20 | 85 | 1006.4 |
| 20260508090903 | 63 | 170 | 2.0 | 4.0 | 0.01 | 0.22 | 0.20 | 85 | 1006.2 |
| 20260508090803 | 63 | 171 | 2.0 | 4.0 | 0.01 | 0.22 | 0.20 | 85 | 1006.4 |
| 20260508090704 | 63 | 172 | 2.0 | 4.0 | 0.01 | 0.22 | 0.20 | 86 | 1006.3 |
| 20260508090604 | 63 | 168 | 2.0 | 4.0 | 0.01 | 0.22 | 0.20 | 87 | 1006.3 |
| 20260508090504 | 64 | 178 | 2.0 | 3.0 | 0.01 | 0.22 | 0.20 | 87 | 1006.2 |
| 20260508090404 | 64 | 178 | 2.0 | 3.0 | 0.01 | 0.22 | 0.20 | 87 | 1006.2 |
| 20260508090304 | 64 | 167 | 2.0 | 3.0 | 0.01 | 0.22 | 0.20 | 87 | 1006.3 |
| 20260508090204 | 64 | 156 | 2.0 | 3.0 | 0.01 | 0.22 | 0.20 | 87 | 1006.3 |
| 20260508090104 | 64 | 151 | 2.0 | 3.0 | 0.01 | 0.22 | 0.20 | 87 | 1006.4 |
| 20260508090004 | 64 | 143 | 2.0 | 3.0 | 0.01 | 0.22 | 0.20 | 87 | 1006.2 |
| 20260508085904 | 64 | 134 | 2.0 | 3.0 | 0.01 | 0.22 | 0.20 | 88 | 1006.3 |
| 20260508085803 | 64 | 135 | 2.0 | 3.0 | 0.01 | 0.22 | 0.20 | 89 | 1006.3 |
| 20260508085703 | 64 | 131 | 2.0 | 3.0 | 0.01 | 0.22 | 0.20 | 89 | 1006.2 |
| 20260508085603 | 64 | 138 | 2.0 | 3.0 | 0.01 | 0.22 | 0.20 | 90 | 1006.1 |
| 20260508085503 | 64 | 133 | 2.0 | 3.0 | 0.01 | 0.22 | 0.20 | 90 | 1006.1 |
| 20260508085403 | 64 | 135 | 2.0 | 3.0 | 0.01 | 0.22 | 0.20 | 91 | 1006.2 |
| 20260508085306 | 64 | 148 | 2.0 | 3.0 | 0.01 | 0.22 | 0.20 | 91 | 1006.2 |
| 20260508085203 | 64 | 158 | 2.0 | 3.0 | 0.01 | 0.22 | 0.20 | 91 | 1006.0 |
| 20260508085103 | 64 | 156 | 2.0 | 3.0 | 0.01 | 0.22 | 0.20 | 92 | 1006.1 |
| 20260508085003 | 64 | 161 | 2.0 | 3.0 | 0.00 | 0.21 | 0.19 | 92 | 1006.3 |
| 20260508084903 | 64 | 171 | 1.0 | 3.0 | 0.00 | 0.21 | 0.19 | 92 | 1006.2 |
| 20260508084804 | 63 | 175 | 1.0 | 3.0 | 0.00 | 0.21 | 0.19 | 95 | 1006.2 |
| 20260508084704 | 63 | 175 | 1.0 | 3.0 | 0.00 | 0.21 | 0.19 | 95 | 1006.3 |
| 20260508084604 | 63 | 176 | 1.0 | 3.0 | 0.00 | 0.21 | 0.19 | 95 | 1006.2 |
| 20260508084504 | 63 | 174 | 2.0 | 3.0 | 0.00 | 0.21 | 0.19 | 95 | 1006.1 |
| 20260508084404 | 62 | 172 | 1.0 | 3.0 | 0.00 | 0.21 | 0.19 | 95 | 1006.2 |
| 20260508084304 | 62 | 170 | 1.0 | 3.0 | 0.00 | 0.21 | 0.19 | 96 | 1006.2 |
| 20260508084205 | 62 | 165 | 1.0 | 3.0 | 0.00 | 0.21 | 0.19 | 96 | 1006.3 |
| 20260508084104 | 62 | 168 | 1.0 | 3.0 | 0.00 | 0.21 | 0.19 | 96 | 1006.0 |
| 20260508084005 | 62 | 168 | 1.0 | 3.0 | 0.00 | 0.21 | 0.19 | 96 | 1006.2 |
| 20260508083903 | 62 | 168 | 1.0 | 3.0 | 0.00 | 0.21 | 0.19 | 96 | 1006.1 |
| 20260508083804 | 62 | 156 | 1.0 | 3.0 | 0.00 | 0.21 | 0.19 | 97 | 1006.1 |
| 20260508083703 | 62 | 157 | 1.0 | 3.0 | 0.00 | 0.21 | 0.19 | 97 | 1006.1 |
| 20260508083603 | 62 | 156 | 1.0 | 3.0 | 0.00 | 0.21 | 0.19 | 97 | 1006.2 |
| 20260508083503 | 62 | 158 | 1.0 | 3.0 | 0.00 | 0.21 | 0.19 | 97 | 1006.1 |
| 20260508083403 | 62 | 157 | 1.0 | 3.0 | 0.00 | 0.21 | 0.19 | 100 | 1006.1 |
| 20260508083303 | 62 | 156 | 1.0 | 3.0 | 0.00 | 0.21 | 0.19 | 100 | 1006.1 |
| 20260508083203 | 62 | 153 | 1.0 | 3.0 | 0.00 | 0.21 | 0.19 | 100 | 1006.0 |
| 20260508083103 | 62 | 155 | 1.0 | 3.0 | 0.00 | 0.21 | 0.19 | 100 | 1006.1 |
| 20260508083003 | 62 | 158 | 1.0 | 3.0 | 0.00 | 0.21 | 0.19 | 100 | 1006.0 |
| 20260508082903 | 62 | 160 | 1.0 | 3.0 | 0.00 | 0.21 | 0.19 | 100 | 1006.0 |
| 20260508082803 | 62 | 166 | 1.0 | 3.0 | 0.00 | 0.21 | 0.19 | 100 | 1006.0 |
| 20260508082703 | 62 | 166 | 0.0 | 3.0 | 0.00 | 0.21 | 0.19 | 100 | 1006.0 |
| 20260508082604 | 62 | 163 | 0.0 | 2.0 | 0.00 | 0.21 | 0.19 | 99 | 1006.1 |
| 20260508082504 | 62 | 164 | 0.0 | 2.0 | 0.00 | 0.21 | 0.19 | 99 | 1006.0 |
| 20260508082404 | 62 | 167 | 0.0 | 2.0 | 0.00 | 0.21 | 0.19 | 99 | 1006.0 |
| 20260508082306 | 62 | 167 | 1.0 | 2.0 | 0.00 | 0.21 | 0.19 | 99 | 1006.0 |
| 20260508082204 | 62 | 178 | 1.0 | 2.0 | 0.00 | 0.21 | 0.19 | 99 | 1005.8 |
| 20260508082104 | 62 | 178 | 1.0 | 2.0 | 0.00 | 0.21 | 0.19 | 99 | 1006.1 |
| 20260508082004 | 62 | 175 | 1.0 | 2.0 | 0.00 | 0.21 | 0.19 | 99 | 1005.8 |
| 20260508081704 | 62 | 135 | 0.0 | 2.0 | 0.00 | 0.21 | 0.19 | 99 | 1005.9 |
| 20260508081604 | 62 | 135 | 0.0 | 2.0 | 0.00 | 0.21 | 0.19 | 99 | 1006.0 |
| 20260508081504 | 62 | 166 | 1.0 | 5.0 | 0.00 | 0.21 | 0.19 | 99 | 1005.9 |
| 20260508081403 | 62 | 166 | 1.0 | 5.0 | 0.00 | 0.21 | 0.19 | 99 | 1005.9 |
| 20260508081303 | 61 | 175 | 0.0 | 5.0 | 0.00 | 0.21 | 0.19 | 99 | 1005.9 |
| 20260508081204 | 61 | 180 | 0.0 | 5.0 | 0.00 | 0.21 | 0.19 | 99 | 1005.8 |
| 20260508081104 | 61 | 180 | 0.0 | 5.0 | 0.00 | 0.21 | 0.19 | 99 | 1005.9 |
| 20260508081003 | 61 | 180 | 0.0 | 5.0 | 0.00 | 0.21 | 0.19 | 99 | 1005.9 |
| 20260508080903 | 61 | 180 | 0.0 | 5.0 | 0.00 | 0.21 | 0.19 | 99 | 1005.9 |
| 20260508080803 | 61 | 180 | 0.0 | 5.0 | 0.00 | 0.21 | 0.19 | 99 | 1005.8 |
| 20260508080703 | 61 | 180 | 0.0 | 5.0 | 0.00 | 0.21 | 0.19 | 99 | 1005.9 |
| 20260508080603 | 61 | 180 | 0.0 | 5.0 | 0.00 | 0.21 | 0.19 | 99 | 1005.9 |
| 20260508080503 | 61 | 0 | 0.0 | 0.0 | 0.00 | 0.21 | 0.19 | 99 | 1005.9 |
| 20260508080403 | 61 | 0 | 0.0 | 0.0 | 0.00 | 0.21 | 0.19 | 99 | 1005.8 |
| 20260508080303 | 61 | 0 | 0.0 | 0.0 | 0.00 | 0.21 | 0.19 | 99 | 1005.8 |
| 20260508080203 | 61 | 0 | 0.0 | 0.0 | 0.00 | 0.21 | 0.19 | 99 | 1005.9 |
| 20260508080003 | 61 | 0 | 0.0 | 0.0 | 0.00 | 0.21 | 0.19 | 99 | 1005.9 |
| 20260508075903 | 60 | 0 | 0.0 | 0.0 | 0.00 | 0.21 | 0.19 | 99 | 1005.8 |
| 20260508075803 | 60 | 0 | 0.0 | 0.0 | 0.00 | 0.21 | 0.19 | 99 | 1005.7 |
| 20260508075704 | 61 | 0 | 0.0 | 0.0 | 0.00 | 0.21 | 0.19 | 99 | 1005.7 |
| 20260508075604 | 60 | 0 | 0.0 | 0.0 | 0.00 | 0.21 | 0.19 | 99 | 1005.7 |
| 20260508075504 | 60 | 0 | 0.0 | 0.0 | 0.00 | 0.21 | 0.19 | 99 | 1005.7 |
| 20260508075404 | 60 | 0 | 0.0 | 0.0 | 0.00 | 0.21 | 0.19 | 99 | 1005.7 |
| 20260508075308 | 60 | 0 | 0.0 | 0.0 | 0.00 | 0.21 | 0.19 | 99 | 1005.6 |
| 20260508075204 | 60 | 0 | 0.0 | 0.0 | 0.00 | 0.21 | 0.19 | 99 | 1005.7 |
| 20260508075104 | 60 | 0 | 0.0 | 0.0 | 0.00 | 0.21 | 0.19 | 99 | 1005.6 |
| 20260508075004 | 60 | 0 | 0.0 | 0.0 | 0.00 | 0.21 | 0.19 | 99 | 1005.7 |
| 20260508074904 | 60 | 0 | 0.0 | 0.0 | 0.00 | 0.21 | 0.19 | 99 | 1005.7 |
| 20260508074804 | 60 | 0 | 0.0 | 0.0 | 0.00 | 0.21 | 0.19 | 99 | 1005.7 |
| 20260508074703 | 60 | 0 | 0.0 | 0.0 | 0.00 | 0.21 | 0.19 | 99 | 1005.6 |
| 20260508074604 | 60 | 0 | 0.0 | 0.0 | 0.00 | 0.21 | 0.19 | 99 | 1005.7 |
| 20260508074503 | 60 | 0 | 0.0 | 0.0 | 0.00 | 0.21 | 0.19 | 99 | 1005.6 |
| 20260508074403 | 60 | 0 | 0.0 | 0.0 | 0.00 | 0.21 | 0.19 | 99 | 1005.7 |
| 20260508074305 | 60 | 0 | 0.0 | 0.0 | 0.00 | 0.21 | 0.19 | 99 | 1005.6 |
| 20260508074203 | 60 | 0 | 0.0 | 0.0 | 0.00 | 0.21 | 0.19 | 99 | 1005.7 |
| 20260508074103 | 59 | 0 | 0.0 | 0.0 | 0.00 | 0.21 | 0.19 | 99 | 1005.7 |
| 20260508074003 | 59 | 0 | 0.0 | 0.0 | 0.00 | 0.21 | 0.19 | 99 | 1005.7 |
| 20260508073903 | 59 | 0 | 0.0 | 0.0 | 0.00 | 0.21 | 0.19 | 99 | 1005.6 |
| 20260508073803 | 59 | 0 | 0.0 | 0.0 | 0.00 | 0.21 | 0.19 | 99 | 1005.7 |
| 20260508073704 | 59 | 0 | 0.0 | 0.0 | 0.00 | 0.21 | 0.19 | 99 | 1005.7 |
| 20260508073603 | 59 | 135 | 0.0 | 2.0 | 0.00 | 0.21 | 0.19 | 99 | 1005.5 |
| 20260508073503 | 59 | 135 | 0.0 | 2.0 | 0.00 | 0.21 | 0.19 | 99 | 1005.6 |
| 20260508073403 | 59 | 135 | 0.0 | 2.0 | 0.00 | 0.21 | 0.19 | 99 | 1005.5 |
| 20260508073303 | 59 | 135 | 0.0 | 2.0 | 0.00 | 0.21 | 0.19 | 99 | 1005.5 |
| 20260508073203 | 59 | 135 | 0.0 | 2.0 | 0.00 | 0.21 | 0.19 | 99 | 1005.5 |
| 20260508073104 | 59 | 135 | 0.0 | 2.0 | 0.00 | 0.21 | 0.19 | 99 | 1005.5 |
| 20260508073004 | 58 | 135 | 0.0 | 2.0 | 0.00 | 0.21 | 0.19 | 99 | 1005.4 |
| 20260508072904 | 58 | 135 | 0.0 | 2.0 | 0.00 | 0.21 | 0.19 | 99 | 1005.5 |
| 20260508072804 | 58 | 135 | 0.0 | 2.0 | 0.00 | 0.21 | 0.19 | 99 | 1005.4 |
| 20260508072704 | 58 | 135 | 0.0 | 2.0 | 0.00 | 0.21 | 0.19 | 99 | 1005.4 |
| 20260508072604 | 59 | 135 | 0.0 | 2.0 | 0.00 | 0.21 | 0.19 | 99 | 1005.5 |
| 20260508072504 | 59 | 0 | 0.0 | 0.0 | 0.00 | 0.21 | 0.19 | 99 | 1005.6 |
| 20260508072403 | 59 | 0 | 0.0 | 0.0 | 0.00 | 0.21 | 0.19 | 99 | 1005.5 |
| 20260508072307 | 59 | 0 | 0.0 | 0.0 | 0.00 | 0.21 | 0.19 | 99 | 1005.4 |
| 20260508072203 | 59 | 0 | 0.0 | 0.0 | 0.00 | 0.21 | 0.19 | 99 | 1005.4 |
| 20260508072103 | 59 | 0 | 0.0 | 0.0 | 0.00 | 0.21 | 0.19 | 99 | 1005.5 |
| 20260508072004 | 59 | 0 | 0.0 | 0.0 | 0.00 | 0.21 | 0.19 | 99 | 1005.6 |
| 20260508071703 | 58 | 0 | 0.0 | 0.0 | 0.00 | 0.21 | 0.19 | 99 | 1005.4 |
| 20260508071603 | 58 | 0 | 0.0 | 0.0 | 0.00 | 0.21 | 0.19 | 99 | 1005.4 |
| 20260508071504 | 58 | 0 | 0.0 | 0.0 | 0.00 | 0.21 | 0.19 | 99 | 1005.4 |
| 20260508071403 | 58 | 0 | 0.0 | 0.0 | 0.00 | 0.21 | 0.19 | 99 | 1005.2 |
| 20260508071303 | 58 | 0 | 0.0 | 0.0 | 0.00 | 0.21 | 0.19 | 99 | 1005.5 |
| 20260508071203 | 58 | 0 | 0.0 | 0.0 | 0.00 | 0.21 | 0.19 | 99 | 1005.4 |
| 20260508071103 | 58 | 0 | 0.0 | 0.0 | 0.00 | 0.21 | 0.19 | 99 | 1005.4 |
| 20260508071003 | 58 | 0 | 0.0 | 0.0 | 0.00 | 0.21 | 0.19 | 99 | 1005.5 |
| 20260508070903 | 58 | 0 | 0.0 | 0.0 | 0.00 | 0.21 | 0.19 | 99 | 1005.4 |
| 20260508070803 | 58 | 0 | 0.0 | 0.0 | 0.00 | 0.21 | 0.19 | 99 | 1005.5 |
| 20260508070703 | 58 | 0 | 0.0 | 0.0 | 0.00 | 0.21 | 0.19 | 99 | 1005.3 |
| 20260508070603 | 58 | 0 | 0.0 | 0.0 | 0.00 | 0.21 | 0.19 | 99 | 1005.3 |
| 20260508070504 | 58 | 0 | 0.0 | 0.0 | 0.00 | 0.21 | 0.19 | 100 | 1005.3 |
| 20260508070404 | 58 | 0 | 0.0 | 0.0 | 0.00 | 0.21 | 0.19 | 100 | 1005.4 |
| 20260508070304 | 58 | 0 | 0.0 | 0.0 | 0.00 | 0.21 | 0.19 | 100 | 1005.3 |
| 20260508070204 | 58 | 0 | 0.0 | 0.0 | 0.00 | 0.21 | 0.19 | 100 | 1005.3 |
| 20260508070104 | 58 | 0 | 0.0 | 0.0 | 0.00 | 0.21 | 0.19 | 100 | 1005.4 |
| 20260508070004 | 58 | 0 | 0.0 | 0.0 | 0.00 | 0.21 | 0.19 | 100 | 1005.4 |
| 20260508065904 | 58 | 0 | 0.0 | 0.0 | 0.00 | 0.21 | 0.19 | 100 | 1005.3 |
| 20260508065804 | 58 | 0 | 0.0 | 0.0 | 0.00 | 0.21 | 0.19 | 100 | 1005.2 |
| 20260508065703 | 58 | 0 | 0.0 | 0.0 | 0.00 | 0.21 | 0.19 | 100 | 1005.3 |
| 20260508065603 | 58 | 0 | 0.0 | 0.0 | 0.00 | 0.21 | 0.19 | 100 | 1005.2 |
| 20260508065503 | 58 | 0 | 0.0 | 0.0 | 0.00 | 0.21 | 0.19 | 100 | 1005.2 |
| 20260508065403 | 58 | 0 | 0.0 | 0.0 | 0.00 | 0.21 | 0.19 | 100 | 1005.3 |
| 20260508065306 | 58 | 0 | 0.0 | 0.0 | 0.00 | 0.21 | 0.19 | 100 | 1005.3 |
| 20260508065203 | 58 | 0 | 0.0 | 0.0 | 0.00 | 0.21 | 0.19 | 100 | 1005.3 |
| 20260508065104 | 57 | 0 | 0.0 | 0.0 | 0.00 | 0.21 | 0.19 | 100 | 1005.4 |
| 20260508065003 | 57 | 0 | 0.0 | 0.0 | 0.00 | 0.21 | 0.19 | 100 | 1005.3 |
| 20260508064903 | 57 | 0 | 0.0 | 0.0 | 0.00 | 0.21 | 0.19 | 100 | 1005.3 |
| 20260508064803 | 57 | 0 | 0.0 | 0.0 | 0.00 | 0.21 | 0.19 | 100 | 1005.4 |
| 20260508064703 | 57 | 0 | 0.0 | 0.0 | 0.00 | 0.21 | 0.19 | 100 | 1005.3 |
| 20260508064603 | 57 | 0 | 0.0 | 0.0 | 0.00 | 0.21 | 0.19 | 100 | 1005.3 |
| 20260508064503 | 57 | 0 | 0.0 | 0.0 | 0.00 | 0.21 | 0.19 | 100 | 1005.3 |
| 20260508064403 | 57 | 0 | 0.0 | 0.0 | 0.00 | 0.21 | 0.19 | 100 | 1005.3 |
| 20260508064304 | 57 | 0 | 0.0 | 0.0 | 0.00 | 0.21 | 0.19 | 100 | 1005.2 |
| 20260508064204 | 57 | 0 | 0.0 | 0.0 | 0.00 | 0.21 | 0.19 | 100 | 1005.3 |
| 20260508064104 | 57 | 0 | 0.0 | 0.0 | 0.00 | 0.21 | 0.19 | 100 | 1005.2 |
| 20260508064004 | 56 | 0 | 0.0 | 0.0 | 0.00 | 0.21 | 0.19 | 100 | 1005.3 |
| 20260508063904 | 56 | 0 | 0.0 | 0.0 | 0.00 | 0.21 | 0.19 | 100 | 1005.3 |
| 20260508063804 | 56 | 0 | 0.0 | 0.0 | 0.00 | 0.21 | 0.19 | 100 | 1005.2 |
| 20260508063704 | 56 | 0 | 0.0 | 0.0 | 0.00 | 0.21 | 0.19 | 100 | 1005.1 |
| 20260508063603 | 56 | 0 | 0.0 | 0.0 | 0.00 | 0.21 | 0.19 | 100 | 1005.1 |
| 20260508063503 | 56 | 0 | 0.0 | 0.0 | 0.00 | 0.21 | 0.19 | 100 | 1005.1 |
| 20260508063403 | 56 | 0 | 0.0 | 0.0 | 0.00 | 0.21 | 0.19 | 100 | 1005.1 |
| 20260508063303 | 56 | 0 | 0.0 | 0.0 | 0.00 | 0.21 | 0.19 | 100 | 1005.2 |
| 20260508063203 | 56 | 0 | 0.0 | 0.0 | 0.00 | 0.21 | 0.19 | 100 | 1005.3 |
| 20260508063103 | 56 | 0 | 0.0 | 0.0 | 0.00 | 0.21 | 0.19 | 100 | 1005.2 |
| 20260508063003 | 56 | 0 | 0.0 | 0.0 | 0.00 | 0.21 | 0.19 | 97 | 1005.1 |
| 20260508062903 | 55 | 0 | 0.0 | 0.0 | 0.00 | 0.21 | 0.19 | 97 | 1005.1 |
| 20260508062803 | 55 | 0 | 0.0 | 0.0 | 0.00 | 0.21 | 0.19 | 97 | 1005.2 |
| 20260508062703 | 55 | 0 | 0.0 | 0.0 | 0.00 | 0.21 | 0.19 | 97 | 1005.1 |
| 20260508062604 | 55 | 0 | 0.0 | 0.0 | 0.00 | 0.21 | 0.19 | 97 | 1005.1 |
| 20260508062504 | 55 | 0 | 0.0 | 0.0 | 0.00 | 0.21 | 0.19 | 97 | 1005.1 |
| 20260508062404 | 55 | 0 | 0.0 | 0.0 | 0.00 | 0.21 | 0.19 | 97 | 1005.2 |
| 20260508062306 | 55 | 0 | 0.0 | 0.0 | 0.00 | 0.21 | 0.19 | 97 | 1005.1 |
| 20260508062204 | 55 | 0 | 0.0 | 0.0 | 0.00 | 0.21 | 0.19 | 97 | 1005.2 |
| 20260508062104 | 54 | 0 | 0.0 | 0.0 | 0.00 | 0.21 | 0.19 | 97 | 1004.9 |
| 20260508062004 | 54 | 0 | 0.0 | 0.0 | 0.00 | 0.21 | 0.19 | 97 | 1005.1 |
| 20260508061704 | 54 | 180 | 0.0 | 1.0 | 0.00 | 0.21 | 0.19 | 99 | 1005.0 |
| 20260508061604 | 54 | 180 | 0.0 | 1.0 | 0.00 | 0.21 | 0.19 | 99 | 1005.1 |
| 20260508061504 | 54 | 180 | 0.0 | 1.0 | 0.00 | 0.21 | 0.19 | 99 | 1005.1 |
| 20260508061404 | 54 | 180 | 0.0 | 1.0 | 0.00 | 0.21 | 0.19 | 99 | 1005.1 |
| 20260508061304 | 54 | 180 | 0.0 | 1.0 | 0.00 | 0.21 | 0.19 | 99 | 1005.1 |
| 20260508061204 | 54 | 180 | 0.0 | 1.0 | 0.00 | 0.21 | 0.19 | 99 | 1005.2 |
| 20260508061103 | 54 | 180 | 0.0 | 1.0 | 0.00 | 0.21 | 0.19 | 99 | 1005.0 |
| 20260508061003 | 54 | 0 | 0.0 | 0.0 | 0.00 | 0.21 | 0.19 | 99 | 1005.2 |
| 20260508060903 | 54 | 0 | 0.0 | 0.0 | 0.00 | 0.21 | 0.19 | 99 | 1005.2 |
| 20260508060803 | 54 | 0 | 0.0 | 0.0 | 0.00 | 0.21 | 0.19 | 99 | 1005.1 |
| 20260508060703 | 54 | 0 | 0.0 | 0.0 | 0.00 | 0.21 | 0.19 | 99 | 1005.2 |
| 20260508060603 | 54 | 0 | 0.0 | 0.0 | 0.00 | 0.21 | 0.19 | 99 | 1005.2 |
| 20260508060503 | 54 | 0 | 0.0 | 0.0 | 0.00 | 0.21 | 0.19 | 99 | 1005.3 |
| 20260508060404 | 54 | 0 | 0.0 | 0.0 | 0.00 | 0.21 | 0.19 | 99 | 1005.2 |
| 20260508060303 | 54 | 0 | 0.0 | 0.0 | 0.00 | 0.21 | 0.19 | 99 | 1005.2 |
| 20260508060203 | 54 | 0 | 0.0 | 0.0 | 0.00 | 0.21 | 0.19 | 99 | 1005.1 |
| 20260508060103 | 54 | 0 | 0.0 | 0.0 | 0.00 | 0.21 | 0.19 | 99 | 1005.2 |
| 20260508060003 | 54 | 0 | 0.0 | 0.0 | 0.00 | 0.21 | 0.19 | 99 | 1005.1 |
| 20260508055903 | 54 | 0 | 0.0 | 0.0 | 0.00 | 0.21 | 0.19 | 99 | 1005.1 |
| 20260508055803 | 54 | 0 | 0.0 | 0.0 | 0.00 | 0.21 | 0.19 | 99 | 1005.1 |
| 20260508055703 | 53 | 0 | 0.0 | 0.0 | 0.00 | 0.21 | 0.19 | 99 | 1004.9 |
| 20260508055604 | 53 | 0 | 0.0 | 0.0 | 0.00 | 0.21 | 0.19 | 99 | 1005.0 |
| 20260508055504 | 53 | 0 | 0.0 | 0.0 | 0.00 | 0.21 | 0.19 | 99 | 1005.1 |
| 20260508055404 | 53 | 0 | 0.0 | 0.0 | 0.00 | 0.21 | 0.19 | 99 | 1005.0 |
| 20260508055306 | 53 | 0 | 0.0 | 0.0 | 0.00 | 0.21 | 0.19 | 99 | 1005.0 |
| 20260508055204 | 53 | 0 | 0.0 | 0.0 | 0.00 | 0.21 | 0.19 | 99 | 1004.9 |
| 20260508055104 | 53 | 0 | 0.0 | 0.0 | 0.00 | 0.21 | 0.19 | 99 | 1004.9 |
| 20260508055004 | 53 | 0 | 0.0 | 0.0 | 0.00 | 0.21 | 0.19 | 99 | 1004.9 |
| 20260508054904 | 53 | 0 | 0.0 | 0.0 | 0.00 | 0.21 | 0.19 | 99 | 1005.0 |
| 20260508054804 | 53 | 0 | 0.0 | 0.0 | 0.00 | 0.21 | 0.19 | 99 | 1004.9 |
| 20260508054703 | 53 | 0 | 0.0 | 0.0 | 0.00 | 0.21 | 0.19 | 99 | 1004.9 |
| 20260508054603 | 53 | 0 | 0.0 | 0.0 | 0.00 | 0.21 | 0.19 | 99 | 1004.8 |
| 20260508054503 | 53 | 0 | 0.0 | 0.0 | 0.00 | 0.21 | 0.19 | 99 | 1005.0 |
| 20260508054403 | 53 | 0 | 0.0 | 0.0 | 0.00 | 0.21 | 0.19 | 99 | 1004.8 |
| 20260508054303 | 53 | 0 | 0.0 | 0.0 | 0.00 | 0.21 | 0.19 | 99 | 1004.8 |
| 20260508054203 | 53 | 0 | 0.0 | 0.0 | 0.00 | 0.21 | 0.19 | 99 | 1004.8 |
| 20260508054103 | 53 | 0 | 0.0 | 0.0 | 0.00 | 0.21 | 0.19 | 99 | 1005.0 |
| 20260508054003 | 53 | 0 | 0.0 | 0.0 | 0.00 | 0.21 | 0.19 | 99 | 1004.9 |
| 20260508053903 | 53 | 0 | 0.0 | 0.0 | 0.00 | 0.21 | 0.19 | 99 | 1004.7 |
| 20260508053803 | 53 | 0 | 0.0 | 0.0 | 0.00 | 0.21 | 0.19 | 99 | 1004.9 |
| 20260508053703 | 53 | 0 | 0.0 | 0.0 | 0.00 | 0.21 | 0.19 | 99 | 1004.7 |
| 20260508053603 | 53 | 0 | 0.0 | 0.0 | 0.00 | 0.21 | 0.19 | 99 | 1004.7 |
| 20260508053504 | 53 | 0 | 0.0 | 0.0 | 0.00 | 0.21 | 0.19 | 99 | 1004.8 |
| 20260508053404 | 53 | 0 | 0.0 | 0.0 | 0.00 | 0.21 | 0.19 | 99 | 1004.8 |
| 20260508053304 | 53 | 0 | 0.0 | 0.0 | 0.00 | 0.21 | 0.19 | 99 | 1004.8 |
| 20260508053204 | 53 | 0 | 0.0 | 0.0 | 0.00 | 0.21 | 0.19 | 99 | 1004.8 |
| 20260508053104 | 53 | 0 | 0.0 | 0.0 | 0.00 | 0.21 | 0.19 | 99 | 1004.7 |
| 20260508053004 | 53 | 0 | 0.0 | 0.0 | 0.00 | 0.21 | 0.19 | 99 | 1004.8 |
| 20260508052904 | 53 | 0 | 0.0 | 0.0 | 0.00 | 0.21 | 0.19 | 99 | 1004.7 |
| 20260508052803 | 53 | 0 | 0.0 | 0.0 | 0.00 | 0.21 | 0.19 | 99 | 1004.7 |
| 20260508052703 | 53 | 0 | 0.0 | 0.0 | 0.00 | 0.21 | 0.19 | 99 | 1004.7 |
| 20260508052603 | 53 | 0 | 0.0 | 0.0 | 0.00 | 0.21 | 0.19 | 99 | 1004.7 |
| 20260508052503 | 53 | 0 | 0.0 | 0.0 | 0.00 | 0.21 | 0.19 | 99 | 1004.8 |
| 20260508052403 | 53 | 0 | 0.0 | 0.0 | 0.00 | 0.21 | 0.19 | 99 | 1004.7 |
| 20260508052306 | 53 | 0 | 0.0 | 0.0 | 0.00 | 0.21 | 0.19 | 99 | 1004.7 |
| 20260508052203 | 53 | 0 | 0.0 | 0.0 | 0.00 | 0.21 | 0.19 | 99 | 1004.8 |
| 20260508052103 | 53 | 0 | 0.0 | 0.0 | 0.00 | 0.21 | 0.19 | 99 | 1004.8 |
| 20260508052003 | 53 | 0 | 0.0 | 0.0 | 0.00 | 0.21 | 0.19 | 99 | 1004.7 |
| 20260508051703 | 52 | 0 | 0.0 | 0.0 | 0.00 | 0.21 | 0.19 | 99 | 1004.7 |
| 20260508051603 | 52 | 0 | 0.0 | 0.0 | 0.00 | 0.21 | 0.19 | 99 | 1004.7 |
| 20260508051503 | 52 | 0 | 0.0 | 0.0 | 0.00 | 0.21 | 0.19 | 99 | 1004.8 |
| 20260508051403 | 52 | 0 | 0.0 | 0.0 | 0.00 | 0.21 | 0.19 | 99 | 1004.7 |
| 20260508051304 | 52 | 0 | 0.0 | 0.0 | 0.00 | 0.21 | 0.19 | 99 | 1004.7 |
| 20260508051205 | 52 | 0 | 0.0 | 0.0 | 0.00 | 0.21 | 0.19 | 99 | 1004.7 |
| 20260508051104 | 52 | 0 | 0.0 | 0.0 | 0.00 | 0.21 | 0.19 | 99 | 1004.8 |
| 20260508051004 | 52 | 0 | 0.0 | 0.0 | 0.00 | 0.21 | 0.19 | 99 | 1004.6 |
| 20260508050904 | 52 | 0 | 0.0 | 0.0 | 0.00 | 0.21 | 0.19 | 99 | 1004.6 |
| 20260508050804 | 52 | 0 | 0.0 | 0.0 | 0.00 | 0.21 | 0.19 | 99 | 1004.8 |
| 20260508050704 | 52 | 0 | 0.0 | 0.0 | 0.00 | 0.21 | 0.19 | 100 | 1004.7 |
| 20260508050604 | 52 | 0 | 0.0 | 0.0 | 0.00 | 0.21 | 0.19 | 100 | 1004.6 |
| 20260508050503 | 52 | 0 | 0.0 | 0.0 | 0.00 | 0.21 | 0.19 | 100 | 1004.6 |
| 20260508050403 | 52 | 0 | 0.0 | 0.0 | 0.00 | 0.21 | 0.19 | 100 | 1004.6 |
| 20260508050303 | 52 | 0 | 0.0 | 0.0 | 0.00 | 0.21 | 0.19 | 100 | 1004.6 |
| 20260508050205 | 52 | 0 | 0.0 | 0.0 | 0.00 | 0.21 | 0.19 | 100 | 1004.7 |
| 20260508050104 | 52 | 0 | 0.0 | 0.0 | 0.00 | 0.21 | 0.19 | 100 | 1004.6 |
| 20260508050003 | 52 | 0 | 0.0 | 0.0 | 0.00 | 0.21 | 0.19 | 100 | 1004.8 |
| 20260508045903 | 52 | 0 | 0.0 | 0.0 | 0.00 | 0.21 | 0.19 | 100 | 1004.7 |
| 20260508045803 | 51 | 0 | 0.0 | 0.0 | 0.00 | 0.21 | 0.19 | 100 | 1004.6 |
| 20260508045703 | 51 | 0 | 0.0 | 0.0 | 0.00 | 0.21 | 0.19 | 100 | 1004.7 |
| 20260508045603 | 51 | 0 | 0.0 | 0.0 | 0.00 | 0.21 | 0.19 | 100 | 1004.5 |
| 20260508045503 | 51 | 0 | 0.0 | 0.0 | 0.00 | 0.21 | 0.19 | 100 | 1004.5 |
| 20260508045404 | 51 | 0 | 0.0 | 0.0 | 0.00 | 0.21 | 0.19 | 100 | 1004.6 |
| 20260508045306 | 51 | 0 | 0.0 | 0.0 | 0.00 | 0.21 | 0.19 | 100 | 1004.5 |
| 20260508045204 | 51 | 0 | 0.0 | 0.0 | 0.00 | 0.21 | 0.19 | 100 | 1004.6 |
| 20260508045104 | 51 | 0 | 0.0 | 0.0 | 0.00 | 0.21 | 0.19 | 100 | 1004.6 |
| 20260508045004 | 51 | 0 | 0.0 | 0.0 | 0.00 | 0.21 | 0.19 | 100 | 1004.6 |
| 20260508044904 | 51 | 0 | 0.0 | 0.0 | 0.00 | 0.21 | 0.19 | 100 | 1004.6 |
| 20260508044804 | 51 | 0 | 0.0 | 0.0 | 0.00 | 0.21 | 0.19 | 100 | 1004.5 |
| 20260508044703 | 51 | 0 | 0.0 | 0.0 | 0.00 | 0.21 | 0.19 | 100 | 1004.6 |
| 20260508044604 | 51 | 0 | 0.0 | 0.0 | 0.00 | 0.21 | 0.19 | 100 | 1004.7 |
| 20260508044504 | 51 | 0 | 0.0 | 0.0 | 0.00 | 0.21 | 0.19 | 100 | 1004.4 |
| 20260508044403 | 51 | 0 | 0.0 | 0.0 | 0.00 | 0.21 | 0.19 | 100 | 1004.6 |
| 20260508044303 | 51 | 0 | 0.0 | 0.0 | 0.00 | 0.21 | 0.19 | 100 | 1004.4 |
| 20260508044203 | 51 | 0 | 0.0 | 0.0 | 0.00 | 0.21 | 0.19 | 100 | 1004.5 |
| 20260508044103 | 51 | 0 | 0.0 | 0.0 | 0.00 | 0.21 | 0.19 | 100 | 1004.5 |
| 20260508044003 | 51 | 0 | 0.0 | 0.0 | 0.00 | 0.21 | 0.19 | 100 | 1004.6 |
| 20260508043903 | 51 | 0 | 0.0 | 0.0 | 0.00 | 0.21 | 0.19 | 100 | 1004.5 |
| 20260508043803 | 51 | 0 | 0.0 | 0.0 | 0.00 | 0.21 | 0.19 | 100 | 1004.6 |
| 20260508043705 | 51 | 0 | 0.0 | 0.0 | 0.00 | 0.21 | 0.19 | 100 | 1004.4 |
| 20260508043603 | 51 | 0 | 0.0 | 0.0 | 0.00 | 0.21 | 0.19 | 100 | 1004.5 |
| 20260508043503 | 51 | 0 | 0.0 | 0.0 | 0.00 | 0.21 | 0.19 | 100 | 1004.6 |
| 20260508043403 | 52 | 0 | 0.0 | 0.0 | 0.00 | 0.21 | 0.19 | 100 | 1004.5 |
| 20260508043303 | 52 | 0 | 0.0 | 0.0 | 0.00 | 0.21 | 0.19 | 100 | 1004.4 |
| 20260508043203 | 52 | 0 | 0.0 | 0.0 | 0.00 | 0.21 | 0.19 | 100 | 1004.5 |
| 20260508043103 | 52 | 0 | 0.0 | 0.0 | 0.00 | 0.21 | 0.19 | 100 | 1004.5 |
| 20260508043004 | 52 | 0 | 0.0 | 0.0 | 0.00 | 0.21 | 0.19 | 100 | 1004.6 |
| 20260508042904 | 52 | 0 | 0.0 | 0.0 | 0.00 | 0.21 | 0.19 | 100 | 1004.6 |
| 20260508042804 | 52 | 0 | 0.0 | 0.0 | 0.00 | 0.21 | 0.19 | 100 | 1004.6 |
| 20260508042704 | 52 | 0 | 0.0 | 0.0 | 0.00 | 0.21 | 0.19 | 100 | 1004.5 |
| 20260508042604 | 52 | 0 | 0.0 | 0.0 | 0.00 | 0.21 | 0.19 | 100 | 1004.6 |
| 20260508042504 | 52 | 0 | 0.0 | 0.0 | 0.00 | 0.21 | 0.19 | 100 | 1004.5 |
| 20260508042403 | 52 | 0 | 0.0 | 0.0 | 0.00 | 0.21 | 0.19 | 100 | 1004.7 |
| 20260508042307 | 52 | 0 | 0.0 | 0.0 | 0.00 | 0.21 | 0.19 | 100 | 1004.6 |
| 20260508042203 | 52 | 0 | 0.0 | 0.0 | 0.00 | 0.21 | 0.19 | 100 | 1004.6 |
| 20260508042103 | 52 | 0 | 0.0 | 0.0 | 0.00 | 0.21 | 0.19 | 100 | 1004.5 |
| 20260508042004 | 52 | 0 | 0.0 | 0.0 | 0.00 | 0.21 | 0.19 | 100 | 1004.6 |
| 20260508041703 | 52 | 0 | 0.0 | 0.0 | 0.00 | 0.21 | 0.19 | 100 | 1004.7 |
| 20260508041603 | 52 | 0 | 0.0 | 0.0 | 0.00 | 0.21 | 0.19 | 100 | 1004.5 |
| 20260508041504 | 52 | 0 | 0.0 | 0.0 | 0.00 | 0.21 | 0.19 | 100 | 1004.6 |
| 20260508041404 | 52 | 0 | 0.0 | 0.0 | 0.00 | 0.21 | 0.19 | 100 | 1004.7 |
| 20260508041304 | 52 | 0 | 0.0 | 0.0 | 0.00 | 0.21 | 0.19 | 100 | 1004.5 |
| 20260508041204 | 52 | 0 | 0.0 | 0.0 | 0.01 | 0.21 | 0.19 | 100 | 1004.4 |
| 20260508041104 | 52 | 0 | 0.0 | 0.0 | 0.01 | 0.21 | 0.19 | 100 | 1004.5 |
| 20260508041004 | 52 | 0 | 0.0 | 0.0 | 0.01 | 0.21 | 0.19 | 100 | 1004.3 |
| 20260508040903 | 52 | 0 | 0.0 | 0.0 | 0.01 | 0.21 | 0.19 | 100 | 1004.6 |
| 20260508040804 | 52 | 0 | 0.0 | 0.0 | 0.01 | 0.21 | 0.19 | 100 | 1004.4 |
| 20260508040703 | 52 | 0 | 0.0 | 0.0 | 0.01 | 0.21 | 0.19 | 100 | 1004.5 |
| 20260508040603 | 52 | 0 | 0.0 | 0.0 | 0.01 | 0.21 | 0.19 | 100 | 1004.6 |
| 20260508040503 | 52 | 0 | 0.0 | 0.0 | 0.01 | 0.21 | 0.19 | 100 | 1004.7 |
| 20260508040403 | 52 | 0 | 0.0 | 0.0 | 0.01 | 0.21 | 0.19 | 100 | 1004.5 |
| 20260508040303 | 52 | 0 | 0.0 | 0.0 | 0.01 | 0.21 | 0.19 | 100 | 1004.6 |
| 20260508040203 | 52 | 0 | 0.0 | 0.0 | 0.01 | 0.21 | 0.19 | 100 | 1004.5 |
| 20260508040103 | 52 | 0 | 0.0 | 0.0 | 0.01 | 0.21 | 0.19 | 100 | 1004.5 |
| 20260508040004 | 52 | 0 | 0.0 | 0.0 | 0.01 | 0.21 | 0.19 | 100 | 1004.5 |
| 20260508035903 | 52 | 0 | 0.0 | 0.0 | 0.01 | 0.21 | 0.19 | 97 | 1004.8 |
| 20260508035803 | 52 | 0 | 0.0 | 0.0 | 0.01 | 0.21 | 0.19 | 97 | 1004.6 |
| 20260508035703 | 52 | 270 | 0.0 | 1.0 | 0.01 | 0.21 | 0.19 | 97 | 1004.7 |
| 20260508035603 | 52 | 308 | 0.0 | 3.0 | 0.01 | 0.21 | 0.19 | 97 | 1004.7 |
| 20260508035503 | 52 | 308 | 0.0 | 3.0 | 0.01 | 0.21 | 0.19 | 97 | 1004.5 |
| 20260508035403 | 52 | 308 | 0.0 | 3.0 | 0.01 | 0.21 | 0.19 | 97 | 1004.7 |
| 20260508035306 | 52 | 308 | 0.0 | 3.0 | 0.01 | 0.21 | 0.19 | 97 | 1004.6 |
| 20260508035204 | 52 | 308 | 0.0 | 3.0 | 0.01 | 0.21 | 0.19 | 97 | 1004.6 |
| 20260508035104 | 52 | 310 | 1.0 | 3.0 | 0.01 | 0.21 | 0.19 | 97 | 1004.5 |
| 20260508035004 | 52 | 315 | 1.0 | 4.0 | 0.01 | 0.21 | 0.19 | 97 | 1004.6 |
| 20260508034904 | 52 | 306 | 1.0 | 4.0 | 0.02 | 0.21 | 0.19 | 97 | 1004.8 |
| 20260508034804 | 52 | 307 | 1.0 | 4.0 | 0.02 | 0.21 | 0.19 | 97 | 1004.6 |
| 20260508034704 | 52 | 308 | 1.0 | 4.0 | 0.02 | 0.21 | 0.19 | 97 | 1004.5 |
| 20260508034604 | 52 | 308 | 1.0 | 4.0 | 0.02 | 0.21 | 0.19 | 97 | 1004.6 |
| 20260508034504 | 52 | 318 | 2.0 | 4.0 | 0.02 | 0.21 | 0.19 | 97 | 1004.7 |
| 20260508034404 | 52 | 319 | 2.0 | 4.0 | 0.02 | 0.21 | 0.19 | 97 | 1004.5 |
| 20260508034304 | 52 | 320 | 2.0 | 4.0 | 0.02 | 0.21 | 0.19 | 97 | 1004.7 |
| 20260508034204 | 52 | 324 | 2.0 | 4.0 | 0.02 | 0.21 | 0.19 | 97 | 1004.6 |
| 20260508034104 | 52 | 321 | 2.0 | 4.0 | 0.02 | 0.21 | 0.19 | 97 | 1004.6 |
| 20260508034003 | 52 | 311 | 2.0 | 6.0 | 0.02 | 0.21 | 0.19 | 97 | 1004.6 |
| 20260508033903 | 52 | 304 | 3.0 | 6.0 | 0.02 | 0.21 | 0.19 | 97 | 1004.7 |
| 20260508033803 | 52 | 300 | 3.0 | 6.0 | 0.02 | 0.21 | 0.19 | 97 | 1004.5 |
| 20260508033703 | 52 | 293 | 4.0 | 6.0 | 0.02 | 0.21 | 0.19 | 97 | 1004.7 |
| 20260508033603 | 52 | 288 | 4.0 | 6.0 | 0.02 | 0.21 | 0.19 | 97 | 1004.7 |
| 20260508033503 | 52 | 276 | 4.0 | 6.0 | 0.02 | 0.21 | 0.19 | 97 | 1004.7 |
| 20260508033403 | 52 | 275 | 4.0 | 6.0 | 0.02 | 0.21 | 0.19 | 97 | 1004.8 |
| 20260508033303 | 53 | 276 | 4.0 | 6.0 | 0.02 | 0.21 | 0.19 | 97 | 1004.7 |
| 20260508033203 | 53 | 274 | 4.0 | 6.0 | 0.02 | 0.21 | 0.19 | 97 | 1004.7 |
| 20260508033103 | 53 | 273 | 4.0 | 6.0 | 0.02 | 0.21 | 0.19 | 97 | 1004.8 |
| 20260508033003 | 53 | 277 | 4.0 | 6.0 | 0.02 | 0.21 | 0.19 | 97 | 1004.8 |
| 20260508032903 | 53 | 278 | 3.0 | 6.0 | 0.02 | 0.21 | 0.19 | 97 | 1004.8 |
| 20260508032804 | 53 | 276 | 3.0 | 4.0 | 0.02 | 0.21 | 0.19 | 97 | 1004.7 |
| 20260508032704 | 53 | 282 | 3.0 | 4.0 | 0.02 | 0.21 | 0.19 | 97 | 1004.8 |
| 20260508032604 | 53 | 289 | 3.0 | 4.0 | 0.02 | 0.21 | 0.19 | 97 | 1004.8 |
| 20260508032504 | 53 | 300 | 3.0 | 4.0 | 0.02 | 0.21 | 0.19 | 97 | 1004.8 |
| 20260508032404 | 53 | 298 | 2.0 | 4.0 | 0.02 | 0.21 | 0.19 | 97 | 1004.7 |
| 20260508032306 | 53 | 301 | 2.0 | 4.0 | 0.02 | 0.21 | 0.19 | 97 | 1004.8 |
| 20260508032204 | 53 | 301 | 1.0 | 4.0 | 0.02 | 0.21 | 0.19 | 97 | 1005.0 |
| 20260508032104 | 53 | 310 | 1.0 | 4.0 | 0.02 | 0.21 | 0.19 | 97 | 1004.9 |
| 20260508032004 | 53 | 272 | 0.0 | 2.0 | 0.02 | 0.21 | 0.19 | 97 | 1005.0 |
| 20260508031703 | 53 | 267 | 2.0 | 7.0 | 0.04 | 0.21 | 0.19 | 97 | 1005.0 |
| 20260508031603 | 53 | 271 | 3.0 | 7.0 | 0.04 | 0.21 | 0.19 | 97 | 1004.9 |
| 20260508031504 | 53 | 268 | 3.0 | 7.0 | 0.04 | 0.21 | 0.19 | 97 | 1004.7 |
| 20260508031403 | 53 | 270 | 3.0 | 7.0 | 0.04 | 0.21 | 0.19 | 97 | 1004.8 |
| 20260508031304 | 53 | 273 | 3.0 | 7.0 | 0.02 | 0.20 | 0.18 | 96 | 1004.7 |
| 20260508031203 | 53 | 274 | 3.0 | 7.0 | 0.02 | 0.20 | 0.18 | 96 | 1004.9 |
| 20260508031103 | 53 | 276 | 3.0 | 7.0 | 0.02 | 0.20 | 0.18 | 96 | 1004.9 |
| 20260508031003 | 53 | 276 | 3.0 | 6.0 | 0.02 | 0.20 | 0.18 | 96 | 1004.7 |
| 20260508030903 | 53 | 281 | 3.0 | 6.0 | 0.02 | 0.20 | 0.18 | 96 | 1004.7 |
| 20260508030803 | 53 | 289 | 3.0 | 6.0 | 0.02 | 0.20 | 0.18 | 96 | 1004.9 |
| 20260508030703 | 53 | 308 | 2.0 | 5.0 | 0.02 | 0.20 | 0.18 | 96 | 1004.7 |
| 20260508030603 | 53 | 311 | 2.0 | 4.0 | 0.02 | 0.20 | 0.18 | 96 | 1004.7 |
| 20260508030503 | 53 | 317 | 2.0 | 4.0 | 0.04 | 0.20 | 0.18 | 96 | 1004.7 |
| 20260508030403 | 53 | 307 | 2.0 | 4.0 | 0.04 | 0.20 | 0.18 | 96 | 1004.7 |
| 20260508030303 | 53 | 291 | 2.0 | 5.0 | 0.04 | 0.20 | 0.18 | 96 | 1004.7 |
| 20260508030204 | 53 | 296 | 2.0 | 5.0 | 0.04 | 0.20 | 0.18 | 96 | 1004.7 |
| 20260508030104 | 53 | 294 | 3.0 | 5.0 | 0.04 | 0.20 | 0.18 | 96 | 1004.7 |
| 20260508030004 | 53 | 290 | 3.0 | 5.0 | 0.04 | 0.20 | 0.18 | 96 | 1004.8 |
| 20260508025904 | 53 | 282 | 3.0 | 6.0 | 0.04 | 0.20 | 0.18 | 96 | 1004.7 |
| 20260508025804 | 53 | 277 | 3.0 | 6.0 | 0.04 | 0.20 | 0.18 | 96 | 1004.7 |
| 20260508025704 | 53 | 278 | 3.0 | 7.0 | 0.04 | 0.20 | 0.18 | 96 | 1004.9 |
| 20260508025604 | 53 | 282 | 4.0 | 7.0 | 0.04 | 0.20 | 0.18 | 96 | 1004.8 |
| 20260508025503 | 53 | 284 | 4.0 | 7.0 | 0.04 | 0.20 | 0.18 | 96 | 1004.8 |
| 20260508025404 | 53 | 290 | 5.0 | 7.0 | 0.04 | 0.20 | 0.18 | 96 | 1004.7 |
| 20260508025306 | 53 | 299 | 5.0 | 7.0 | 0.04 | 0.20 | 0.18 | 96 | 1004.7 |
| 20260508025204 | 53 | 294 | 5.0 | 7.0 | 0.04 | 0.20 | 0.18 | 96 | 1004.7 |
| 20260508025103 | 53 | 297 | 5.0 | 8.0 | 0.04 | 0.20 | 0.18 | 96 | 1004.7 |
| 20260508025003 | 53 | 303 | 6.0 | 8.0 | 0.02 | 0.19 | 0.17 | 96 | 1004.8 |
| 20260508024903 | 53 | 305 | 6.0 | 8.0 | 0.02 | 0.19 | 0.17 | 96 | 1004.8 |
| 20260508024803 | 53 | 305 | 5.0 | 8.0 | 0.02 | 0.19 | 0.17 | 96 | 1004.7 |
| 20260508024703 | 53 | 304 | 5.0 | 8.0 | 0.02 | 0.19 | 0.17 | 96 | 1004.7 |
| 20260508024603 | 53 | 301 | 5.0 | 8.0 | 0.02 | 0.19 | 0.17 | 96 | 1004.7 |
| 20260508024503 | 53 | 305 | 5.0 | 8.0 | 0.02 | 0.19 | 0.17 | 96 | 1004.7 |
| 20260508024403 | 54 | 310 | 5.0 | 8.0 | 0.02 | 0.19 | 0.17 | 96 | 1004.7 |
| 20260508024303 | 54 | 301 | 5.0 | 8.0 | 0.02 | 0.19 | 0.17 | 96 | 1004.7 |
| 20260508024204 | 54 | 302 | 5.0 | 8.0 | 0.02 | 0.19 | 0.17 | 96 | 1004.6 |
| 20260508024104 | 54 | 298 | 5.0 | 8.0 | 0.02 | 0.19 | 0.17 | 96 | 1004.8 |
| 20260508024004 | 54 | 292 | 5.0 | 8.0 | 0.02 | 0.19 | 0.17 | 95 | 1004.6 |
| 20260508023904 | 54 | 286 | 5.0 | 8.0 | 0.04 | 0.19 | 0.17 | 95 | 1004.7 |
| 20260508023804 | 54 | 289 | 5.0 | 8.0 | 0.04 | 0.19 | 0.17 | 95 | 1004.8 |
| 20260508023704 | 54 | 289 | 5.0 | 8.0 | 0.04 | 0.19 | 0.17 | 95 | 1004.7 |
| 20260508023604 | 54 | 295 | 5.0 | 8.0 | 0.04 | 0.19 | 0.17 | 95 | 1004.7 |
| 20260508023504 | 54 | 294 | 6.0 | 8.0 | 0.04 | 0.19 | 0.17 | 95 | 1004.7 |
| 20260508023403 | 54 | 292 | 6.0 | 8.0 | 0.04 | 0.19 | 0.17 | 95 | 1004.8 |
| 20260508023304 | 54 | 295 | 5.0 | 8.0 | 0.04 | 0.19 | 0.17 | 95 | 1004.6 |
| 20260508023203 | 54 | 298 | 5.0 | 8.0 | 0.04 | 0.19 | 0.17 | 95 | 1004.8 |
| 20260508023103 | 54 | 304 | 5.0 | 8.0 | 0.04 | 0.19 | 0.17 | 95 | 1004.7 |
| 20260508023003 | 54 | 303 | 5.0 | 8.0 | 0.04 | 0.19 | 0.17 | 95 | 1004.7 |
| 20260508022903 | 54 | 307 | 5.0 | 8.0 | 0.04 | 0.19 | 0.17 | 95 | 1004.6 |
| 20260508022803 | 54 | 308 | 5.0 | 8.0 | 0.04 | 0.19 | 0.17 | 95 | 1004.6 |
| 20260508022703 | 54 | 308 | 5.0 | 8.0 | 0.04 | 0.19 | 0.17 | 95 | 1004.6 |
| 20260508022603 | 54 | 303 | 4.0 | 8.0 | 0.05 | 0.19 | 0.17 | 95 | 1004.6 |
| 20260508022504 | 54 | 299 | 4.0 | 5.0 | 0.05 | 0.19 | 0.17 | 95 | 1004.6 |
| 20260508022403 | 54 | 295 | 4.0 | 5.0 | 0.05 | 0.19 | 0.17 | 95 | 1004.8 |
| 20260508022306 | 54 | 291 | 4.0 | 5.0 | 0.05 | 0.19 | 0.17 | 95 | 1004.7 |
| 20260508022204 | 54 | 285 | 4.0 | 5.0 | 0.05 | 0.19 | 0.17 | 95 | 1004.6 |
| 20260508022104 | 54 | 271 | 4.0 | 5.0 | 0.05 | 0.19 | 0.17 | 95 | 1004.6 |
| 20260508022004 | 54 | 291 | 4.0 | 6.0 | 0.04 | 0.18 | 0.15 | 95 | 1004.6 |
| 20260508021703 | 54 | 291 | 5.0 | 9.0 | 0.04 | 0.18 | 0.15 | 95 | 1004.6 |
| 20260508021604 | 54 | 298 | 5.0 | 9.0 | 0.04 | 0.18 | 0.15 | 95 | 1004.4 |
| 20260508021503 | 54 | 302 | 5.0 | 9.0 | 0.04 | 0.18 | 0.15 | 95 | 1004.6 |
| 20260508021403 | 54 | 304 | 6.0 | 9.0 | 0.04 | 0.18 | 0.15 | 95 | 1004.4 |
| 20260508021304 | 54 | 305 | 7.0 | 9.0 | 0.04 | 0.18 | 0.15 | 95 | 1004.5 |
| 20260508021203 | 54 | 306 | 7.0 | 9.0 | 0.04 | 0.18 | 0.15 | 95 | 1004.6 |
| 20260508021103 | 54 | 310 | 8.0 | 9.0 | 0.04 | 0.18 | 0.15 | 95 | 1004.6 |
| 20260508021003 | 54 | 314 | 8.0 | 9.0 | 0.04 | 0.18 | 0.15 | 95 | 1004.4 |
| 20260508020903 | 54 | 312 | 7.0 | 8.0 | 0.05 | 0.18 | 0.15 | 95 | 1004.4 |
| 20260508020803 | 54 | 315 | 7.0 | 8.0 | 0.05 | 0.18 | 0.15 | 95 | 1004.3 |
| 20260508020703 | 54 | 316 | 7.0 | 8.0 | 0.05 | 0.18 | 0.15 | 95 | 1004.3 |
| 20260508020503 | 54 | 321 | 7.0 | 8.0 | 0.04 | 0.17 | 0.14 | 94 | 1004.4 |
| 20260508020305 | 54 | 319 | 6.0 | 8.0 | 0.04 | 0.17 | 0.14 | 94 | 1004.2 |
| 20260508020205 | 54 | 319 | 6.0 | 8.0 | 0.04 | 0.17 | 0.14 | 94 | 1004.3 |
| 20260508020104 | 54 | 321 | 6.0 | 8.0 | 0.05 | 0.17 | 0.14 | 94 | 1004.3 |
| 20260508020004 | 54 | 321 | 6.0 | 8.0 | 0.05 | 0.17 | 0.14 | 94 | 1004.4 |
| 20260508015904 | 54 | 321 | 5.0 | 7.0 | 0.05 | 0.17 | 0.14 | 94 | 1004.4 |
| 20260508015804 | 54 | 317 | 5.0 | 7.0 | 0.05 | 0.17 | 0.14 | 92 | 1004.2 |
| 20260508015704 | 54 | 314 | 5.0 | 7.0 | 0.05 | 0.17 | 0.14 | 92 | 1004.3 |
| 20260508015604 | 54 | 308 | 5.0 | 7.0 | 0.05 | 0.17 | 0.14 | 92 | 1004.2 |
| 20260508015504 | 55 | 301 | 5.0 | 7.0 | 0.05 | 0.17 | 0.14 | 92 | 1004.1 |
| 20260508015404 | 55 | 299 | 5.0 | 7.0 | 0.05 | 0.17 | 0.14 | 91 | 1004.2 |
| 20260508015306 | 55 | 298 | 5.0 | 7.0 | 0.06 | 0.17 | 0.14 | 91 | 1004.1 |
| 20260508015204 | 55 | 295 | 4.0 | 7.0 | 0.06 | 0.17 | 0.14 | 91 | 1004.1 |
| 20260508015103 | 55 | 294 | 4.0 | 7.0 | 0.06 | 0.17 | 0.14 | 91 | 1004.2 |
| 20260508015003 | 54 | 294 | 4.0 | 5.0 | 0.06 | 0.17 | 0.14 | 91 | 1004.1 |
| 20260508014903 | 54 | 296 | 4.0 | 5.0 | 0.06 | 0.17 | 0.14 | 91 | 1004.2 |
| 20260508014803 | 54 | 304 | 4.0 | 5.0 | 0.06 | 0.17 | 0.14 | 94 | 1004.1 |
| 20260508014703 | 54 | 308 | 4.0 | 5.0 | 0.06 | 0.17 | 0.14 | 94 | 1004.1 |
| 20260508014603 | 54 | 311 | 4.0 | 5.0 | 0.06 | 0.17 | 0.14 | 94 | 1004.1 |
| 20260508014503 | 54 | 317 | 4.0 | 5.0 | 0.07 | 0.17 | 0.14 | 94 | 1004.2 |
| 20260508014403 | 54 | 319 | 4.0 | 5.0 | 0.07 | 0.17 | 0.14 | 94 | 1004.1 |
| 20260508014303 | 54 | 321 | 4.0 | 5.0 | 0.07 | 0.17 | 0.14 | 94 | 1004.2 |
| 20260508014203 | 54 | 324 | 4.0 | 5.0 | 0.07 | 0.17 | 0.14 | 93 | 1004.1 |
| 20260508014104 | 54 | 326 | 4.0 | 4.0 | 0.08 | 0.17 | 0.14 | 93 | 1004.1 |
| 20260508014004 | 54 | 325 | 3.0 | 4.0 | 0.07 | 0.15 | 0.13 | 93 | 1004.1 |
| 20260508013904 | 54 | 325 | 3.0 | 4.0 | 0.08 | 0.15 | 0.13 | 93 | 1004.1 |
| 20260508013804 | 54 | 321 | 3.0 | 4.0 | 0.08 | 0.15 | 0.13 | 93 | 1004.2 |
| 20260508013704 | 54 | 321 | 2.0 | 4.0 | 0.11 | 0.15 | 0.13 | 93 | 1004.2 |
| 20260508013604 | 54 | 314 | 2.0 | 4.0 | 0.11 | 0.15 | 0.13 | 93 | 1004.2 |
| 20260508013504 | 54 | 312 | 2.0 | 4.0 | 0.11 | 0.15 | 0.13 | 93 | 1004.2 |
| 20260508013404 | 53 | 324 | 2.0 | 4.0 | 0.12 | 0.15 | 0.13 | 93 | 1004.3 |
| 20260508013303 | 53 | 324 | 1.0 | 3.0 | 0.13 | 0.15 | 0.13 | 93 | 1004.3 |
| 20260508013203 | 53 | 320 | 1.0 | 3.0 | 0.13 | 0.15 | 0.13 | 93 | 1004.3 |
| 20260508013104 | 53 | 319 | 1.0 | 2.0 | 0.13 | 0.15 | 0.13 | 93 | 1004.3 |
| 20260508013004 | 53 | 319 | 1.0 | 2.0 | 0.13 | 0.15 | 0.13 | 93 | 1004.3 |
| 20260508012903 | 53 | 319 | 1.0 | 2.0 | 0.13 | 0.15 | 0.13 | 93 | 1004.3 |
| 20260508012803 | 53 | 319 | 1.0 | 2.0 | 0.13 | 0.15 | 0.13 | 93 | 1004.3 |
| 20260508012703 | 53 | 320 | 1.0 | 2.0 | 0.12 | 0.14 | 0.12 | 93 | 1004.3 |
| 20260508012603 | 53 | 321 | 1.0 | 2.0 | 0.12 | 0.14 | 0.12 | 93 | 1004.2 |
| 20260508012504 | 53 | 321 | 1.0 | 2.0 | 0.12 | 0.14 | 0.12 | 93 | 1004.2 |
| 20260508012403 | 53 | 315 | 1.0 | 2.0 | 0.12 | 0.14 | 0.12 | 93 | 1004.3 |
| 20260508012307 | 53 | 315 | 0.0 | 2.0 | 0.12 | 0.14 | 0.12 | 93 | 1004.2 |
| 20260508012203 | 53 | 0 | 0.0 | 0.0 | 0.12 | 0.14 | 0.12 | 93 | 1004.3 |
| 20260508012104 | 53 | 0 | 0.0 | 0.0 | 0.12 | 0.14 | 0.12 | 93 | 1004.2 |
| 20260508012004 | 53 | 0 | 0.0 | 0.0 | 0.12 | 0.14 | 0.12 | 93 | 1004.3 |
| 20260508011704 | 54 | 0 | 0.0 | 0.0 | 0.12 | 0.14 | 0.12 | 92 | 1004.2 |
| 20260508011604 | 54 | 0 | 0.0 | 0.0 | 0.12 | 0.14 | 0.12 | 92 | 1004.2 |
| 20260508011504 | 54 | 0 | 0.0 | 0.0 | 0.12 | 0.14 | 0.12 | 92 | 1004.1 |
| 20260508011404 | 54 | 0 | 0.0 | 0.0 | 0.12 | 0.14 | 0.12 | 92 | 1004.3 |
| 20260508011304 | 54 | 0 | 0.0 | 0.0 | 0.12 | 0.14 | 0.12 | 92 | 1004.2 |
| 20260508011204 | 54 | 0 | 0.0 | 0.0 | 0.12 | 0.14 | 0.12 | 92 | 1004.2 |
| 20260508011104 | 54 | 0 | 0.0 | 0.0 | 0.12 | 0.14 | 0.12 | 92 | 1004.3 |
| 20260508011004 | 54 | 0 | 0.0 | 0.0 | 0.11 | 0.13 | 0.11 | 92 | 1004.3 |
| 20260508010904 | 54 | 0 | 0.0 | 0.0 | 0.11 | 0.13 | 0.11 | 92 | 1004.2 |
| 20260508010803 | 54 | 0 | 0.0 | 0.0 | 0.11 | 0.13 | 0.11 | 92 | 1004.2 |
| 20260508010703 | 54 | 45 | 0.0 | 1.0 | 0.11 | 0.13 | 0.11 | 92 | 1004.3 |
| 20260508010603 | 54 | 45 | 0.0 | 1.0 | 0.11 | 0.13 | 0.11 | 92 | 1004.2 |
| 20260508010503 | 54 | 45 | 0.0 | 1.0 | 0.11 | 0.13 | 0.11 | 92 | 1004.1 |
| 20260508010403 | 54 | 45 | 0.0 | 1.0 | 0.11 | 0.13 | 0.11 | 92 | 1004.2 |
| 20260508010303 | 54 | 45 | 0.0 | 1.0 | 0.11 | 0.13 | 0.11 | 92 | 1004.2 |
| 20260508010203 | 54 | 45 | 0.0 | 1.0 | 0.09 | 0.12 | 0.09 | 92 | 1004.2 |
| 20260508010003 | 54 | 45 | 0.0 | 1.0 | 0.09 | 0.12 | 0.09 | 92 | 1004.2 |
| 20260508005903 | 54 | 45 | 0.0 | 1.0 | 0.09 | 0.12 | 0.09 | 92 | 1004.3 |
| 20260508005804 | 54 | 36 | 0.0 | 1.0 | 0.09 | 0.12 | 0.09 | 92 | 1004.2 |
| 20260508005704 | 54 | 12 | 0.0 | 1.0 | 0.09 | 0.12 | 0.09 | 92 | 1004.4 |
| 20260508005604 | 54 | 306 | 0.0 | 1.0 | 0.09 | 0.12 | 0.09 | 92 | 1004.2 |
| 20260508005504 | 54 | 270 | 0.0 | 1.0 | 0.09 | 0.12 | 0.09 | 90 | 1004.2 |
| 20260508005404 | 54 | 270 | 0.0 | 1.0 | 0.08 | 0.11 | 0.08 | 90 | 1004.3 |
| 20260508005306 | 54 | 270 | 0.0 | 1.0 | 0.08 | 0.11 | 0.08 | 90 | 1004.2 |
| 20260508005204 | 55 | 317 | 0.0 | 1.0 | 0.08 | 0.11 | 0.08 | 90 | 1004.1 |
| 20260508005104 | 55 | 340 | 0.0 | 1.0 | 0.08 | 0.11 | 0.08 | 90 | 1004.1 |
| 20260508005004 | 55 | 342 | 0.0 | 1.0 | 0.08 | 0.11 | 0.08 | 90 | 1004.2 |
| 20260508004904 | 55 | 341 | 0.0 | 1.0 | 0.08 | 0.11 | 0.08 | 90 | 1004.3 |
| 20260508004804 | 55 | 347 | 0.0 | 1.0 | 0.08 | 0.11 | 0.08 | 90 | 1004.1 |
| 20260508004704 | 55 | 355 | 0.0 | 1.0 | 0.08 | 0.11 | 0.08 | 90 | 1004.3 |
| 20260508004603 | 55 | 355 | 0.0 | 1.0 | 0.07 | 0.09 | 0.07 | 90 | 1004.2 |
| 20260508004503 | 55 | 355 | 0.0 | 1.0 | 0.07 | 0.09 | 0.07 | 90 | 1004.1 |
| 20260508004403 | 55 | 355 | 0.0 | 1.0 | 0.07 | 0.09 | 0.07 | 90 | 1004.1 |
| 20260508004304 | 55 | 355 | 0.0 | 1.0 | 0.07 | 0.09 | 0.07 | 90 | 1004.1 |
| 20260508004203 | 55 | 349 | 0.0 | 1.0 | 0.06 | 0.08 | 0.06 | 90 | 1004.2 |
| 20260508004103 | 56 | 331 | 0.0 | 1.0 | 0.06 | 0.08 | 0.06 | 90 | 1004.2 |
| 20260508004003 | 56 | 307 | 0.0 | 1.0 | 0.05 | 0.07 | 0.05 | 90 | 1004.1 |
| 20260508003903 | 56 | 262 | 0.0 | 1.0 | 0.05 | 0.07 | 0.05 | 90 | 1004.0 |
| 20260508003803 | 56 | 267 | 0.0 | 1.0 | 0.02 | 0.05 | 0.02 | 90 | 1004.2 |
| 20260508003703 | 56 | 275 | 0.0 | 1.0 | 0.02 | 0.05 | 0.02 | 90 | 1004.3 |
| 20260508003603 | 56 | 279 | 0.0 | 1.0 | 0.02 | 0.05 | 0.02 | 90 | 1004.2 |
| 20260508003503 | 56 | 282 | 0.0 | 1.0 | 0.01 | 0.04 | 0.01 | 91 | 1004.2 |
| 20260508003403 | 56 | 291 | 0.0 | 1.0 | 0.00 | 0.02 | 0.00 | 91 | 1004.1 |
| 20260508003303 | 56 | 291 | 0.0 | 1.0 | 0.00 | 0.02 | 0.00 | 91 | 1004.1 |
| 20260508003203 | 56 | 291 | 0.0 | 1.0 | 0.00 | 0.02 | 0.00 | 91 | 1004.2 |
| 20260508003103 | 57 | 284 | 0.0 | 1.0 | 0.00 | 0.02 | 0.00 | 91 | 1004.2 |
| 20260508003003 | 57 | 280 | 0.0 | 1.0 | 0.00 | 0.02 | 0.00 | 91 | 1004.2 |
| 20260508002903 | 57 | 294 | 0.0 | 1.0 | 0.00 | 0.02 | 0.00 | 91 | 1004.2 |
| 20260508002803 | 57 | 287 | 0.0 | 1.0 | 0.00 | 0.02 | 0.00 | 91 | 1004.0 |
| 20260508002703 | 57 | 277 | 0.0 | 1.0 | 0.00 | 0.02 | 0.00 | 91 | 1004.1 |
| 20260508002604 | 57 | 267 | 0.0 | 1.0 | 0.00 | 0.02 | 0.00 | 91 | 1004.1 |
| 20260508002504 | 57 | 259 | 0.0 | 1.0 | 0.00 | 0.02 | 0.00 | 91 | 1004.2 |
| 20260508002404 | 57 | 230 | 0.0 | 1.0 | 0.00 | 0.02 | 0.00 | 91 | 1004.2 |
| 20260508002306 | 57 | 230 | 0.0 | 1.0 | 0.00 | 0.02 | 0.00 | 91 | 1004.2 |
| 20260508002204 | 57 | 230 | 0.0 | 1.0 | 0.00 | 0.02 | 0.00 | 91 | 1004.2 |
| 20260508002104 | 57 | 270 | 0.0 | 1.0 | 0.00 | 0.02 | 0.00 | 91 | 1004.0 |
| 20260508002004 | 57 | 270 | 0.0 | 1.0 | 0.00 | 0.02 | 0.00 | 91 | 1004.1 |
| 20260508001703 | 57 | 270 | 0.0 | 1.0 | 0.00 | 0.02 | 0.00 | 91 | 1004.0 |
| 20260508001603 | 57 | 270 | 0.0 | 1.0 | 0.00 | 0.02 | 0.00 | 91 | 1004.0 |
| 20260508001504 | 57 | 270 | 0.0 | 1.0 | 0.00 | 0.02 | 0.00 | 91 | 1004.1 |
| 20260508001403 | 57 | 270 | 0.0 | 1.0 | 0.00 | 0.02 | 0.00 | 91 | 1004.1 |
| 20260508001303 | 57 | 0 | 0.0 | 0.0 | 0.00 | 0.02 | 0.00 | 91 | 1004.0 |
| 20260508001203 | 57 | 0 | 0.0 | 0.0 | 0.00 | 0.02 | 0.00 | 91 | 1004.2 |
| 20260508001103 | 57 | 0 | 0.0 | 0.0 | 0.00 | 0.02 | 0.00 | 91 | 1004.1 |
| 20260508001004 | 56 | 0 | 0.0 | 0.0 | 0.00 | 0.02 | 0.00 | 91 | 1004.3 |
| 20260508000904 | 56 | 0 | 0.0 | 0.0 | 0.00 | 0.02 | 0.00 | 91 | 1004.2 |
| 20260508000804 | 56 | 0 | 0.0 | 0.0 | 0.00 | 0.02 | 0.00 | 91 | 1004.1 |
| 20260508000704 | 56 | 0 | 0.0 | 0.0 | 0.00 | 0.02 | 0.00 | 91 | 1004.1 |
| 20260508000604 | 56 | 0 | 0.0 | 0.0 | 0.00 | 0.02 | 0.00 | 91 | 1004.1 |
| 20260508000504 | 56 | 0 | 0.0 | 0.0 | 0.00 | 0.02 | 0.00 | 91 | 1004.1 |
| 20260508000405 | 56 | 0 | 0.0 | 0.0 | 0.00 | 0.02 | 0.00 | 91 | 1004.1 |
| 20260508000305 | 56 | 0 | 0.0 | 0.0 | 0.00 | 0.02 | 0.00 | 91 | 1004.2 |
| 20260508000204 | 56 | 0 | 0.0 | 0.0 | 0.00 | 0.02 | 0.00 | 91 | 1004.0 |
| 20260508000104 | 56 | 0 | 0.0 | 0.0 | 0.00 | 0.02 | 0.00 | 91 | 1004.2 |
| 20260508000004 | 56 | 0 | 0.0 | 0.0 | 0.00 | 0.02 | 0.00 | 91 | 1004.1 |
| 20260507235903 | 56 | 0 | 0.0 | 0.0 | 0.00 | 0.02 | 0.00 | 91 | 1004.1 |
| 20260507235803 | 56 | 0 | 0.0 | 0.0 | 0.00 | 0.02 | 0.00 | 91 | 1004.1 |
| 20260507235703 | 56 | 0 | 0.0 | 0.0 | 0.00 | 0.02 | 0.00 | 91 | 1004.1 |
| 20260507235603 | 56 | 0 | 0.0 | 0.0 | 0.00 | 0.02 | 0.00 | 91 | 1004.1 |
| 20260507235503 | 56 | 0 | 0.0 | 0.0 | 0.00 | 0.02 | 0.00 | 91 | 1004.1 |
| 20260507235404 | 56 | 0 | 0.0 | 0.0 | 0.00 | 0.02 | 0.00 | 91 | 1004.1 |
| 20260507235306 | 56 | 0 | 0.0 | 0.0 | 0.00 | 0.02 | 0.00 | 91 | 1004.2 |
| 20260507235203 | 56 | 0 | 0.0 | 0.0 | 0.00 | 0.02 | 0.00 | 91 | 1004.1 |
| 20260507235104 | 56 | 0 | 0.0 | 0.0 | 0.00 | 0.02 | 0.00 | 91 | 1004.1 |
| 20260507235004 | 56 | 0 | 0.0 | 0.0 | 0.00 | 0.02 | 0.00 | 91 | 1004.2 |
| 20260507234904 | 56 | 0 | 0.0 | 0.0 | 0.00 | 0.02 | 0.00 | 91 | 1004.2 |
| 20260507234804 | 56 | 0 | 0.0 | 0.0 | 0.00 | 0.02 | 0.00 | 91 | 1004.2 |
| 20260507234704 | 56 | 0 | 0.0 | 0.0 | 0.00 | 0.02 | 0.00 | 91 | 1004.3 |
| 20260507234604 | 56 | 0 | 0.0 | 0.0 | 0.00 | 0.02 | 0.00 | 91 | 1004.3 |
| 20260507234503 | 56 | 0 | 0.0 | 0.0 | 0.00 | 0.02 | 0.00 | 91 | 1004.2 |
| 20260507234404 | 56 | 0 | 0.0 | 0.0 | 0.00 | 0.02 | 0.00 | 91 | 1004.1 |
| 20260507234303 | 56 | 0 | 0.0 | 0.0 | 0.00 | 0.02 | 0.00 | 91 | 1004.2 |
| 20260507234203 | 56 | 0 | 0.0 | 0.0 | 0.00 | 0.02 | 0.00 | 91 | 1004.2 |
| 20260507234103 | 56 | 0 | 0.0 | 0.0 | 0.00 | 0.02 | 0.00 | 91 | 1004.1 |
| 20260507234003 | 57 | 0 | 0.0 | 0.0 | 0.00 | 0.02 | 0.00 | 91 | 1004.3 |
| 20260507233903 | 57 | 0 | 0.0 | 0.0 | 0.00 | 0.02 | 0.00 | 91 | 1004.1 |
| 20260507233803 | 57 | 0 | 0.0 | 0.0 | 0.00 | 0.02 | 0.00 | 91 | 1004.2 |
| 20260507233703 | 57 | 0 | 0.0 | 0.0 | 0.00 | 0.02 | 0.00 | 91 | 1004.1 |
| 20260507233603 | 57 | 0 | 0.0 | 0.0 | 0.00 | 0.02 | 0.00 | 91 | 1004.1 |
| 20260507233503 | 57 | 0 | 0.0 | 0.0 | 0.00 | 0.02 | 0.00 | 91 | 1004.2 |
| 20260507233403 | 57 | 0 | 0.0 | 0.0 | 0.00 | 0.02 | 0.00 | 91 | 1004.2 |
| 20260507233304 | 57 | 0 | 0.0 | 0.0 | 0.00 | 0.02 | 0.00 | 91 | 1004.1 |
| 20260507233204 | 57 | 0 | 0.0 | 0.0 | 0.00 | 0.02 | 0.00 | 91 | 1004.2 |
| 20260507233104 | 57 | 0 | 0.0 | 0.0 | 0.00 | 0.02 | 0.00 | 91 | 1004.3 |
| 20260507233004 | 57 | 0 | 0.0 | 0.0 | 0.00 | 0.02 | 0.00 | 91 | 1004.3 |
| 20260507232904 | 57 | 0 | 0.0 | 0.0 | 0.00 | 0.02 | 0.00 | 91 | 1004.3 |
| 20260507232804 | 57 | 0 | 0.0 | 0.0 | 0.00 | 0.02 | 0.00 | 91 | 1004.3 |
| 20260507232704 | 57 | 0 | 0.0 | 0.0 | 0.00 | 0.02 | 0.00 | 91 | 1004.3 |
| 20260507232604 | 57 | 0 | 0.0 | 0.0 | 0.00 | 0.02 | 0.00 | 91 | 1004.3 |
| 20260507232504 | 57 | 0 | 0.0 | 0.0 | 0.00 | 0.02 | 0.00 | 91 | 1004.3 |
| 20260507232403 | 57 | 0 | 0.0 | 0.0 | 0.00 | 0.02 | 0.00 | 91 | 1004.3 |
| 20260507232306 | 57 | 0 | 0.0 | 0.0 | 0.00 | 0.02 | 0.00 | 91 | 1004.3 |
| 20260507232203 | 57 | 0 | 0.0 | 0.0 | 0.00 | 0.02 | 0.00 | 91 | 1004.2 |
| 20260507232103 | 57 | 0 | 0.0 | 0.0 | 0.00 | 0.02 | 0.00 | 91 | 1004.3 |
| 20260507232004 | 57 | 0 | 0.0 | 0.0 | 0.00 | 0.02 | 0.00 | 91 | 1004.3 |
| 20260507231703 | 57 | 0 | 0.0 | 0.0 | 0.00 | 0.02 | 0.00 | 92 | 1004.2 |
| 20260507231603 | 57 | 0 | 0.0 | 0.0 | 0.00 | 0.02 | 0.00 | 92 | 1004.2 |
| 20260507231504 | 57 | 0 | 0.0 | 0.0 | 0.00 | 0.02 | 0.00 | 92 | 1004.3 |
| 20260507231404 | 57 | 0 | 0.0 | 0.0 | 0.00 | 0.02 | 0.00 | 92 | 1004.4 |
| 20260507231003 | 56 | 0 | 0.0 | 0.0 | 0.00 | 0.02 | 0.00 | 92 | 1004.3 |
| 20260507230904 | 56 | 0 | 0.0 | 0.0 | 0.00 | 0.02 | 0.00 | 92 | 1004.2 |
| 20260507230804 | 56 | 0 | 0.0 | 0.0 | 0.00 | 0.02 | 0.00 | 92 | 1004.4 |
| 20260507230704 | 57 | 0 | 0.0 | 0.0 | 0.00 | 0.02 | 0.00 | 92 | 1004.3 |
| 20260507230604 | 57 | 0 | 0.0 | 0.0 | 0.00 | 0.02 | 0.00 | 92 | 1004.3 |
| 20260507230504 | 57 | 0 | 0.0 | 0.0 | 0.00 | 0.02 | 0.00 | 92 | 1004.4 |
| 20260507230404 | 57 | 0 | 0.0 | 0.0 | 0.00 | 0.02 | 0.00 | 92 | 1004.4 |
| 20260507230304 | 57 | 0 | 0.0 | 0.0 | 0.00 | 0.02 | 0.00 | 92 | 1004.4 |
| 20260507230204 | 57 | 0 | 0.0 | 0.0 | 0.00 | 0.02 | 0.00 | 92 | 1004.4 |
| 20260507230004 | 57 | 0 | 0.0 | 0.0 | 0.00 | 0.02 | 0.00 | 92 | 1004.2 |
| 20260507225903 | 57 | 0 | 0.0 | 0.0 | 0.00 | 0.02 | 0.00 | 92 | 1004.4 |
| 20260507225803 | 57 | 0 | 0.0 | 0.0 | 0.00 | 0.02 | 0.00 | 92 | 1004.3 |
| 20260507225703 | 57 | 0 | 0.0 | 0.0 | 0.00 | 0.02 | 0.00 | 92 | 1004.3 |
| 20260507225603 | 57 | 0 | 0.0 | 0.0 | 0.00 | 0.02 | 0.00 | 92 | 1004.4 |
| 20260507225503 | 57 | 0 | 0.0 | 0.0 | 0.00 | 0.02 | 0.00 | 92 | 1004.4 |
| 20260507225403 | 57 | 0 | 0.0 | 0.0 | 0.00 | 0.02 | 0.00 | 92 | 1004.4 |
| 20260507225306 | 57 | 0 | 0.0 | 0.0 | 0.00 | 0.02 | 0.00 | 92 | 1004.4 |
| 20260507225203 | 57 | 0 | 0.0 | 0.0 | 0.00 | 0.02 | 0.00 | 92 | 1004.3 |
| 20260507225103 | 57 | 0 | 0.0 | 0.0 | 0.00 | 0.02 | 0.00 | 92 | 1004.2 |
| 20260507225003 | 57 | 0 | 0.0 | 0.0 | 0.00 | 0.02 | 0.00 | 92 | 1004.4 |
| 20260507224903 | 57 | 0 | 0.0 | 0.0 | 0.00 | 0.02 | 0.00 | 92 | 1004.5 |
| 20260507224803 | 57 | 0 | 0.0 | 0.0 | 0.00 | 0.02 | 0.00 | 92 | 1004.5 |
| 20260507224705 | 57 | 0 | 0.0 | 0.0 | 0.00 | 0.02 | 0.00 | 92 | 1004.3 |
| 20260507224604 | 57 | 0 | 0.0 | 0.0 | 0.00 | 0.02 | 0.00 | 92 | 1004.5 |
| 20260507224504 | 57 | 0 | 0.0 | 0.0 | 0.00 | 0.02 | 0.00 | 92 | 1004.4 |
| 20260507224404 | 57 | 0 | 0.0 | 0.0 | 0.00 | 0.02 | 0.00 | 92 | 1004.4 |
| 20260507224304 | 57 | 0 | 0.0 | 0.0 | 0.00 | 0.02 | 0.00 | 92 | 1004.4 |
| 20260507224204 | 57 | 0 | 0.0 | 0.0 | 0.00 | 0.02 | 0.00 | 92 | 1004.4 |
| 20260507224104 | 57 | 0 | 0.0 | 0.0 | 0.00 | 0.02 | 0.00 | 92 | 1004.5 |
| 20260507224004 | 57 | 0 | 0.0 | 0.0 | 0.00 | 0.02 | 0.00 | 92 | 1004.4 |
| 20260507223904 | 57 | 0 | 0.0 | 0.0 | 0.00 | 0.02 | 0.00 | 92 | 1004.3 |
| 20260507223804 | 57 | 0 | 0.0 | 0.0 | 0.00 | 0.02 | 0.00 | 92 | 1004.4 |
| 20260507223704 | 57 | 0 | 0.0 | 0.0 | 0.00 | 0.02 | 0.00 | 92 | 1004.4 |
| 20260507223604 | 57 | 0 | 0.0 | 0.0 | 0.00 | 0.02 | 0.00 | 92 | 1004.4 |
| 20260507223503 | 57 | 0 | 0.0 | 0.0 | 0.00 | 0.02 | 0.00 | 92 | 1004.4 |
| 20260507223403 | 57 | 0 | 0.0 | 0.0 | 0.00 | 0.02 | 0.00 | 92 | 1004.5 |
| 20260507223303 | 57 | 0 | 0.0 | 0.0 | 0.00 | 0.02 | 0.00 | 92 | 1004.4 |
| 20260507223203 | 57 | 0 | 0.0 | 0.0 | 0.00 | 0.02 | 0.00 | 92 | 1004.4 |
| 20260507223103 | 57 | 0 | 0.0 | 0.0 | 0.00 | 0.02 | 0.00 | 92 | 1004.4 |
| 20260507223003 | 57 | 0 | 0.0 | 0.0 | 0.00 | 0.02 | 0.00 | 92 | 1004.3 |
| 20260507222903 | 57 | 0 | 0.0 | 0.0 | 0.00 | 0.02 | 0.00 | 92 | 1004.3 |
| 20260507222803 | 57 | 0 | 0.0 | 0.0 | 0.00 | 0.02 | 0.00 | 92 | 1004.3 |
| 20260507222703 | 57 | 0 | 0.0 | 0.0 | 0.00 | 0.02 | 0.00 | 92 | 1004.3 |
| 20260507222603 | 57 | 0 | 0.0 | 0.0 | 0.00 | 0.02 | 0.00 | 92 | 1004.3 |
| 20260507222503 | 57 | 0 | 0.0 | 0.0 | 0.00 | 0.02 | 0.00 | 92 | 1004.2 |
| 20260507222403 | 57 | 0 | 0.0 | 0.0 | 0.00 | 0.02 | 0.00 | 92 | 1004.1 |
| 20260507222306 | 57 | 0 | 0.0 | 0.0 | 0.00 | 0.02 | 0.00 | 92 | 1004.1 |
| 20260507222203 | 57 | 0 | 0.0 | 0.0 | 0.00 | 0.02 | 0.00 | 92 | 1004.1 |
| 20260507222104 | 57 | 0 | 0.0 | 0.0 | 0.00 | 0.02 | 0.00 | 92 | 1004.1 |
| 20260507222004 | 57 | 0 | 0.0 | 0.0 | 0.00 | 0.02 | 0.00 | 92 | 1004.1 |
| 20260507221704 | 56 | 0 | 0.0 | 0.0 | 0.00 | 0.02 | 0.00 | 92 | 1004.1 |
| 20260507221604 | 56 | 0 | 0.0 | 0.0 | 0.00 | 0.02 | 0.00 | 92 | 1004.1 |
| 20260507221504 | 56 | 0 | 0.0 | 0.0 | 0.00 | 0.02 | 0.00 | 92 | 1004.2 |
| 20260507221404 | 56 | 0 | 0.0 | 0.0 | 0.00 | 0.02 | 0.00 | 92 | 1004.0 |
| 20260507221304 | 56 | 0 | 0.0 | 0.0 | 0.00 | 0.02 | 0.00 | 92 | 1004.0 |
| 20260507221208 | 56 | 0 | 0.0 | 0.0 | 0.00 | 0.02 | 0.00 | 92 | 1004.1 |
| 20260507221104 | 56 | 0 | 0.0 | 0.0 | 0.00 | 0.02 | 0.00 | 92 | 1004.1 |
| 20260507221004 | 56 | 0 | 0.0 | 0.0 | 0.00 | 0.02 | 0.00 | 92 | 1004.1 |
| 20260507220904 | 56 | 0 | 0.0 | 0.0 | 0.00 | 0.02 | 0.00 | 92 | 1004.0 |
| 20260507220804 | 56 | 0 | 0.0 | 0.0 | 0.00 | 0.02 | 0.00 | 92 | 1004.1 |
| 20260507220704 | 56 | 0 | 0.0 | 0.0 | 0.00 | 0.02 | 0.00 | 92 | 1004.1 |
| 20260507220603 | 56 | 0 | 0.0 | 0.0 | 0.00 | 0.02 | 0.00 | 92 | 1004.1 |
| 20260507220503 | 56 | 0 | 0.0 | 0.0 | 0.00 | 0.02 | 0.00 | 92 | 1004.1 |
| 20260507220403 | 56 | 0 | 0.0 | 0.0 | 0.00 | 0.02 | 0.00 | 92 | 1004.1 |
| 20260507220303 | 56 | 0 | 0.0 | 0.0 | 0.00 | 0.02 | 0.00 | 92 | 1004.1 |
| 20260507220203 | 56 | 0 | 0.0 | 0.0 | 0.00 | 0.02 | 0.00 | 92 | 1004.2 |
| 20260507220051 | 56 | 0 | 0.0 | 0.0 | 0.00 | 0.02 | 0.00 | 92 | 1004.2 |
| 20260507215903 | 56 | 0 | 0.0 | 0.0 | 0.00 | 0.02 | 0.02 | 92 | 1004.1 |
| 20260507215803 | 56 | 0 | 0.0 | 0.0 | 0.00 | 0.02 | 0.02 | 92 | 1004.2 |
| 20260507215703 | 56 | 0 | 0.0 | 0.0 | 0.00 | 0.02 | 0.02 | 92 | 1004.3 |
| 20260507215604 | 56 | 0 | 0.0 | 0.0 | 0.00 | 0.02 | 0.02 | 92 | 1004.4 |
| 20260507215504 | 56 | 0 | 0.0 | 0.0 | 0.00 | 0.02 | 0.02 | 92 | 1004.3 |
| 20260507215404 | 56 | 0 | 0.0 | 0.0 | 0.00 | 0.02 | 0.02 | 92 | 1004.2 |
| 20260507215306 | 56 | 0 | 0.0 | 0.0 | 0.00 | 0.02 | 0.02 | 92 | 1004.3 |
| 20260507215204 | 56 | 0 | 0.0 | 0.0 | 0.00 | 0.02 | 0.02 | 92 | 1004.3 |
| 20260507215104 | 56 | 0 | 0.0 | 0.0 | 0.00 | 0.02 | 0.02 | 92 | 1004.3 |
| 20260507215004 | 56 | 0 | 0.0 | 0.0 | 0.00 | 0.02 | 0.02 | 92 | 1004.1 |
| 20260507214904 | 56 | 0 | 0.0 | 0.0 | 0.00 | 0.02 | 0.02 | 92 | 1004.3 |
| 20260507214803 | 56 | 0 | 0.0 | 0.0 | 0.00 | 0.02 | 0.02 | 92 | 1004.3 |
| 20260507214704 | 56 | 0 | 0.0 | 0.0 | 0.00 | 0.02 | 0.02 | 92 | 1004.3 |
| 20260507214603 | 56 | 0 | 0.0 | 0.0 | 0.00 | 0.02 | 0.02 | 92 | 1004.3 |
| 20260507214503 | 56 | 0 | 0.0 | 0.0 | 0.00 | 0.02 | 0.02 | 92 | 1004.3 |
| 20260507214403 | 56 | 0 | 0.0 | 0.0 | 0.00 | 0.02 | 0.02 | 92 | 1004.3 |
| 20260507214303 | 56 | 0 | 0.0 | 0.0 | 0.00 | 0.02 | 0.02 | 92 | 1004.3 |
| 20260507214203 | 56 | 0 | 0.0 | 0.0 | 0.00 | 0.02 | 0.02 | 92 | 1004.3 |
| 20260507214103 | 56 | 0 | 0.0 | 0.0 | 0.00 | 0.02 | 0.02 | 92 | 1004.4 |
| 20260507214003 | 56 | 0 | 0.0 | 0.0 | 0.00 | 0.02 | 0.02 | 92 | 1004.3 |
| 20260507213903 | 56 | 0 | 0.0 | 0.0 | 0.00 | 0.02 | 0.02 | 92 | 1004.4 |
| 20260507213803 | 56 | 0 | 0.0 | 0.0 | 0.00 | 0.02 | 0.02 | 92 | 1004.3 |
| 20260507213703 | 56 | 0 | 0.0 | 0.0 | 0.00 | 0.02 | 0.02 | 92 | 1004.3 |
| 20260507213603 | 56 | 0 | 0.0 | 0.0 | 0.00 | 0.02 | 0.02 | 92 | 1004.4 |
| 20260507213503 | 56 | 0 | 0.0 | 0.0 | 0.00 | 0.02 | 0.02 | 92 | 1004.4 |
| 20260507213403 | 56 | 0 | 0.0 | 0.0 | 0.00 | 0.02 | 0.02 | 92 | 1004.4 |
| 20260507213303 | 56 | 0 | 0.0 | 0.0 | 0.00 | 0.02 | 0.02 | 92 | 1004.4 |
| 20260507213204 | 56 | 0 | 0.0 | 0.0 | 0.00 | 0.02 | 0.02 | 92 | 1004.3 |
| 20260507213104 | 56 | 0 | 0.0 | 0.0 | 0.00 | 0.02 | 0.02 | 92 | 1004.4 |
| 20260507213004 | 56 | 0 | 0.0 | 0.0 | 0.00 | 0.02 | 0.02 | 92 | 1004.4 |
| 20260507212905 | 56 | 0 | 0.0 | 0.0 | 0.00 | 0.02 | 0.02 | 92 | 1004.4 |
| 20260507212804 | 56 | 0 | 0.0 | 0.0 | 0.00 | 0.02 | 0.02 | 92 | 1004.5 |
| 20260507212704 | 56 | 0 | 0.0 | 0.0 | 0.00 | 0.02 | 0.02 | 92 | 1004.5 |
| 20260507212604 | 56 | 0 | 0.0 | 0.0 | 0.00 | 0.02 | 0.02 | 91 | 1004.3 |
| 20260507212503 | 56 | 0 | 0.0 | 0.0 | 0.00 | 0.02 | 0.02 | 91 | 1004.4 |
| 20260507212403 | 56 | 0 | 0.0 | 0.0 | 0.00 | 0.02 | 0.02 | 91 | 1004.3 |
| 20260507212307 | 56 | 0 | 0.0 | 0.0 | 0.00 | 0.02 | 0.02 | 91 | 1004.3 |
| 20260507212203 | 56 | 0 | 0.0 | 0.0 | 0.00 | 0.02 | 0.02 | 91 | 1004.3 |
| 20260507212103 | 56 | 0 | 0.0 | 0.0 | 0.00 | 0.02 | 0.02 | 91 | 1004.3 |
| 20260507212003 | 56 | 0 | 0.0 | 0.0 | 0.00 | 0.02 | 0.02 | 91 | 1004.4 |
| 20260507211704 | 56 | 0 | 0.0 | 0.0 | 0.00 | 0.02 | 0.02 | 91 | 1004.4 |
| 20260507211603 | 56 | 0 | 0.0 | 0.0 | 0.00 | 0.02 | 0.02 | 91 | 1004.4 |
| 20260507211503 | 56 | 0 | 0.0 | 0.0 | 0.00 | 0.02 | 0.02 | 91 | 1004.4 |
| 20260507211403 | 56 | 0 | 0.0 | 0.0 | 0.00 | 0.02 | 0.02 | 91 | 1004.5 |
| 20260507211303 | 56 | 0 | 0.0 | 0.0 | 0.00 | 0.02 | 0.02 | 91 | 1004.2 |
| 20260507211203 | 56 | 0 | 0.0 | 0.0 | 0.00 | 0.02 | 0.02 | 91 | 1004.5 |
| 20260507211103 | 56 | 0 | 0.0 | 0.0 | 0.00 | 0.02 | 0.02 | 91 | 1004.4 |
| 20260507211003 | 56 | 0 | 0.0 | 0.0 | 0.00 | 0.02 | 0.02 | 91 | 1004.4 |
| 20260507210903 | 56 | 0 | 0.0 | 0.0 | 0.00 | 0.02 | 0.02 | 91 | 1004.4 |
| 20260507210803 | 56 | 0 | 0.0 | 0.0 | 0.00 | 0.02 | 0.02 | 91 | 1004.4 |
| 20260507210703 | 56 | 0 | 0.0 | 0.0 | 0.00 | 0.02 | 0.02 | 91 | 1004.5 |
| 20260507210603 | 56 | 0 | 0.0 | 0.0 | 0.00 | 0.02 | 0.02 | 91 | 1004.5 |
| 20260507210504 | 56 | 0 | 0.0 | 0.0 | 0.00 | 0.02 | 0.02 | 91 | 1004.4 |
| 20260507210404 | 56 | 0 | 0.0 | 0.0 | 0.00 | 0.02 | 0.02 | 91 | 1004.5 |
| 20260507210304 | 56 | 0 | 0.0 | 0.0 | 0.00 | 0.02 | 0.02 | 91 | 1004.7 |
| 20260507210204 | 56 | 0 | 0.0 | 0.0 | 0.00 | 0.02 | 0.02 | 91 | 1004.5 |
| 20260507210104 | 56 | 0 | 0.0 | 0.0 | 0.00 | 0.02 | 0.02 | 91 | 1004.6 |
| 20260507210005 | 56 | 0 | 0.0 | 0.0 | 0.00 | 0.02 | 0.02 | 91 | 1004.4 |
| 20260507205904 | 56 | 0 | 0.0 | 0.0 | 0.00 | 0.02 | 0.02 | 91 | 1004.4 |
| 20260507205804 | 56 | 0 | 0.0 | 0.0 | 0.00 | 0.02 | 0.02 | 91 | 1004.5 |
| 20260507205704 | 56 | 0 | 0.0 | 0.0 | 0.00 | 0.02 | 0.02 | 91 | 1004.4 |
| 20260507205604 | 56 | 0 | 0.0 | 0.0 | 0.00 | 0.02 | 0.02 | 91 | 1004.4 |
| 20260507205504 | 56 | 0 | 0.0 | 0.0 | 0.00 | 0.02 | 0.02 | 91 | 1004.6 |
| 20260507205404 | 56 | 0 | 0.0 | 0.0 | 0.00 | 0.02 | 0.02 | 91 | 1004.5 |
| 20260507205306 | 56 | 0 | 0.0 | 0.0 | 0.00 | 0.02 | 0.02 | 91 | 1004.4 |
| 20260507205204 | 56 | 0 | 0.0 | 0.0 | 0.00 | 0.02 | 0.02 | 91 | 1004.4 |
| 20260507205105 | 56 | 0 | 0.0 | 0.0 | 0.00 | 0.02 | 0.02 | 91 | 1004.5 |
| 20260507205004 | 56 | 0 | 0.0 | 0.0 | 0.00 | 0.02 | 0.02 | 91 | 1004.4 |
| 20260507204903 | 56 | 0 | 0.0 | 0.0 | 0.00 | 0.02 | 0.02 | 91 | 1004.4 |
| 20260507204803 | 56 | 0 | 0.0 | 0.0 | 0.00 | 0.02 | 0.02 | 91 | 1004.5 |
| 20260507204703 | 56 | 0 | 0.0 | 0.0 | 0.00 | 0.02 | 0.02 | 91 | 1004.5 |
| 20260507204603 | 56 | 0 | 0.0 | 0.0 | 0.00 | 0.02 | 0.02 | 91 | 1004.6 |
| 20260507204504 | 56 | 0 | 0.0 | 0.0 | 0.00 | 0.02 | 0.02 | 91 | 1004.5 |
| 20260507204403 | 56 | 0 | 0.0 | 0.0 | 0.00 | 0.02 | 0.02 | 91 | 1004.4 |
| 20260507204303 | 56 | 0 | 0.0 | 0.0 | 0.00 | 0.02 | 0.02 | 91 | 1004.3 |
| 20260507204203 | 56 | 0 | 0.0 | 0.0 | 0.00 | 0.02 | 0.02 | 91 | 1004.4 |
| 20260507204103 | 56 | 0 | 0.0 | 0.0 | 0.00 | 0.02 | 0.02 | 91 | 1004.4 |
| 20260507204003 | 56 | 0 | 0.0 | 0.0 | 0.00 | 0.02 | 0.02 | 91 | 1004.4 |
| 20260507203903 | 56 | 0 | 0.0 | 0.0 | 0.00 | 0.02 | 0.02 | 91 | 1004.5 |
| 20260507203803 | 56 | 0 | 0.0 | 0.0 | 0.00 | 0.02 | 0.02 | 91 | 1004.4 |
| 20260507203703 | 56 | 0 | 0.0 | 0.0 | 0.00 | 0.02 | 0.02 | 91 | 1004.5 |
| 20260507203604 | 56 | 0 | 0.0 | 0.0 | 0.00 | 0.02 | 0.02 | 91 | 1004.5 |
| 20260507203504 | 56 | 0 | 0.0 | 0.0 | 0.00 | 0.02 | 0.02 | 91 | 1004.5 |
| 20260507203404 | 56 | 0 | 0.0 | 0.0 | 0.00 | 0.02 | 0.02 | 91 | 1004.3 |
| 20260507203304 | 56 | 0 | 0.0 | 0.0 | 0.00 | 0.02 | 0.02 | 91 | 1004.4 |
| 20260507203204 | 56 | 0 | 0.0 | 0.0 | 0.00 | 0.02 | 0.02 | 91 | 1004.4 |
| 20260507203104 | 56 | 0 | 0.0 | 0.0 | 0.00 | 0.02 | 0.02 | 91 | 1004.4 |
| 20260507203004 | 56 | 0 | 0.0 | 0.0 | 0.00 | 0.02 | 0.02 | 91 | 1004.4 |
| 20260507202904 | 56 | 0 | 0.0 | 0.0 | 0.00 | 0.02 | 0.02 | 91 | 1004.4 |
| 20260507202804 | 56 | 0 | 0.0 | 0.0 | 0.00 | 0.02 | 0.02 | 91 | 1004.5 |
| 20260507202704 | 56 | 0 | 0.0 | 0.0 | 0.00 | 0.02 | 0.02 | 91 | 1004.4 |
| 20260507202604 | 56 | 0 | 0.0 | 0.0 | 0.00 | 0.02 | 0.02 | 91 | 1004.5 |
| 20260507202504 | 56 | 0 | 0.0 | 0.0 | 0.00 | 0.02 | 0.02 | 91 | 1004.5 |
| 20260507202404 | 56 | 0 | 0.0 | 0.0 | 0.00 | 0.02 | 0.02 | 90 | 1004.4 |
| 20260507202306 | 56 | 0 | 0.0 | 0.0 | 0.00 | 0.02 | 0.02 | 90 | 1004.4 |
| 20260507202203 | 56 | 0 | 0.0 | 0.0 | 0.00 | 0.02 | 0.02 | 90 | 1004.5 |
| 20260507202104 | 56 | 0 | 0.0 | 0.0 | 0.00 | 0.02 | 0.02 | 90 | 1004.5 |
| 20260507202004 | 56 | 0 | 0.0 | 0.0 | 0.00 | 0.02 | 0.02 | 90 | 1004.4 |
| 20260507201704 | 56 | 0 | 0.0 | 0.0 | 0.00 | 0.02 | 0.02 | 90 | 1004.4 |
| 20260507201604 | 56 | 0 | 0.0 | 0.0 | 0.00 | 0.02 | 0.02 | 90 | 1004.3 |
| 20260507201504 | 56 | 0 | 0.0 | 0.0 | 0.00 | 0.02 | 0.02 | 90 | 1004.4 |
| 20260507201405 | 56 | 0 | 0.0 | 0.0 | 0.00 | 0.02 | 0.02 | 90 | 1004.5 |
| 20260507201304 | 56 | 0 | 0.0 | 0.0 | 0.00 | 0.02 | 0.02 | 90 | 1004.4 |
| 20260507201204 | 56 | 0 | 0.0 | 0.0 | 0.00 | 0.02 | 0.02 | 90 | 1004.5 |
| 20260507201104 | 56 | 0 | 0.0 | 0.0 | 0.00 | 0.02 | 0.02 | 90 | 1004.4 |
| 20260507201004 | 56 | 0 | 0.0 | 0.0 | 0.00 | 0.02 | 0.02 | 90 | 1004.6 |
| 20260507200904 | 56 | 0 | 0.0 | 0.0 | 0.00 | 0.02 | 0.02 | 90 | 1004.5 |
| 20260507200804 | 56 | 0 | 0.0 | 0.0 | 0.00 | 0.02 | 0.02 | 90 | 1004.6 |
| 20260507200704 | 56 | 0 | 0.0 | 0.0 | 0.00 | 0.00 | 0.02 | 90 | 1004.6 |
| 20260507200604 | 56 | 0 | 0.0 | 0.0 | 0.00 | 0.00 | 0.02 | 90 | 1004.6 |
| 20260507200503 | 56 | 0 | 0.0 | 0.0 | 0.00 | 0.00 | 0.02 | 90 | 1004.5 |
| 20260507200403 | 56 | 0 | 0.0 | 0.0 | 0.00 | 0.00 | 0.02 | 90 | 1004.4 |
| 20260507200304 | 56 | 0 | 0.0 | 0.0 | 0.00 | 0.00 | 0.02 | 90 | 1004.4 |
| 20260507200203 | 56 | 0 | 0.0 | 0.0 | 0.00 | 0.00 | 0.02 | 90 | 1004.5 |
| 20260507200104 | 56 | 0 | 0.0 | 0.0 | 0.00 | 0.00 | 0.02 | 90 | 1004.5 |
| 20260507200004 | 56 | 0 | 0.0 | 0.0 | 0.00 | 0.00 | 0.02 | 90 | 1004.4 |
| 20260507195903 | 56 | 0 | 0.0 | 0.0 | 0.00 | 0.00 | 0.02 | 90 | 1004.4 |
| 20260507195803 | 56 | 0 | 0.0 | 0.0 | 0.00 | 0.00 | 0.02 | 90 | 1004.4 |
| 20260507195703 | 56 | 0 | 0.0 | 0.0 | 0.00 | 0.00 | 0.02 | 90 | 1004.3 |
| 20260507195603 | 56 | 0 | 0.0 | 0.0 | 0.00 | 0.00 | 0.02 | 90 | 1004.4 |
| 20260507195503 | 56 | 0 | 0.0 | 0.0 | 0.00 | 0.00 | 0.02 | 90 | 1004.3 |
| 20260507195403 | 56 | 0 | 0.0 | 0.0 | 0.00 | 0.00 | 0.02 | 90 | 1004.4 |
| 20260507195305 | 56 | 0 | 0.0 | 0.0 | 0.00 | 0.00 | 0.02 | 90 | 1004.4 |
| 20260507195203 | 56 | 0 | 0.0 | 0.0 | 0.00 | 0.00 | 0.02 | 90 | 1004.5 |
| 20260507195103 | 56 | 0 | 0.0 | 0.0 | 0.00 | 0.00 | 0.02 | 90 | 1004.4 |
| 20260507195003 | 56 | 0 | 0.0 | 0.0 | 0.00 | 0.00 | 0.02 | 90 | 1004.5 |
| 20260507194903 | 56 | 0 | 0.0 | 0.0 | 0.00 | 0.00 | 0.02 | 90 | 1004.4 |
| 20260507194803 | 56 | 0 | 0.0 | 0.0 | 0.00 | 0.00 | 0.02 | 90 | 1004.4 |
| 20260507194704 | 56 | 0 | 0.0 | 0.0 | 0.00 | 0.00 | 0.02 | 90 | 1004.5 |
| 20260507194604 | 56 | 0 | 0.0 | 0.0 | 0.00 | 0.00 | 0.02 | 90 | 1004.3 |
| 20260507194504 | 56 | 0 | 0.0 | 0.0 | 0.00 | 0.00 | 0.02 | 90 | 1004.4 |
| 20260507194404 | 56 | 0 | 0.0 | 0.0 | 0.00 | 0.00 | 0.02 | 90 | 1004.4 |
| 20260507194304 | 56 | 0 | 0.0 | 0.0 | 0.00 | 0.00 | 0.02 | 90 | 1004.4 |
| 20260507194204 | 56 | 0 | 0.0 | 0.0 | 0.00 | 0.00 | 0.02 | 90 | 1004.4 |
| 20260507194104 | 56 | 0 | 0.0 | 0.0 | 0.00 | 0.00 | 0.02 | 90 | 1004.4 |
| 20260507194004 | 56 | 0 | 0.0 | 0.0 | 0.00 | 0.00 | 0.02 | 90 | 1004.3 |
| 20260507193904 | 56 | 0 | 0.0 | 0.0 | 0.00 | 0.00 | 0.02 | 90 | 1004.3 |
| 20260507193804 | 56 | 0 | 0.0 | 0.0 | 0.00 | 0.00 | 0.02 | 90 | 1004.3 |
| 20260507193704 | 56 | 0 | 0.0 | 0.0 | 0.00 | 0.00 | 0.02 | 90 | 1004.3 |
| 20260507193604 | 56 | 0 | 0.0 | 0.0 | 0.00 | 0.00 | 0.02 | 90 | 1004.3 |
| 20260507193504 | 56 | 0 | 0.0 | 0.0 | 0.00 | 0.00 | 0.02 | 90 | 1004.3 |
| 20260507193403 | 56 | 0 | 0.0 | 0.0 | 0.00 | 0.00 | 0.02 | 90 | 1004.3 |
| 20260507193304 | 56 | 0 | 0.0 | 0.0 | 0.00 | 0.02 | 0.02 | 90 | 1004.3 |
| 20260507193204 | 56 | 0 | 0.0 | 0.0 | 0.00 | 0.02 | 0.02 | 90 | 1004.3 |
| 20260507193103 | 56 | 0 | 0.0 | 0.0 | 0.00 | 0.02 | 0.02 | 90 | 1004.4 |
| 20260507193004 | 56 | 0 | 0.0 | 0.0 | 0.00 | 0.02 | 0.02 | 90 | 1004.4 |
| 20260507192903 | 56 | 0 | 0.0 | 0.0 | 0.00 | 0.02 | 0.02 | 90 | 1004.3 |
| 20260507192803 | 56 | 0 | 0.0 | 0.0 | 0.00 | 0.02 | 0.02 | 90 | 1004.4 |
| 20260507192703 | 56 | 0 | 0.0 | 0.0 | 0.00 | 0.02 | 0.02 | 89 | 1004.2 |
| 20260507192603 | 56 | 0 | 0.0 | 0.0 | 0.00 | 0.02 | 0.02 | 89 | 1004.2 |
| 20260507192503 | 56 | 0 | 0.0 | 0.0 | 0.00 | 0.00 | 0.02 | 89 | 1004.2 |
| 20260507192403 | 56 | 0 | 0.0 | 0.0 | 0.00 | 0.00 | 0.02 | 89 | 1004.3 |
| 20260507192306 | 56 | 0 | 0.0 | 0.0 | 0.00 | 0.00 | 0.02 | 89 | 1004.3 |
| 20260507192204 | 56 | 0 | 0.0 | 0.0 | 0.00 | 0.00 | 0.02 | 89 | 1004.3 |
| 20260507192104 | 56 | 0 | 0.0 | 0.0 | 0.00 | 0.00 | 0.02 | 89 | 1004.1 |
| 20260507192004 | 56 | 0 | 0.0 | 0.0 | 0.00 | 0.00 | 0.02 | 89 | 1004.3 |
| 20260507191703 | 56 | 0 | 0.0 | 0.0 | 0.00 | 0.02 | 0.02 | 89 | 1004.2 |
| 20260507191603 | 56 | 0 | 0.0 | 0.0 | 0.00 | 0.02 | 0.02 | 89 | 1004.1 |
| 20260507191503 | 56 | 0 | 0.0 | 0.0 | 0.00 | 0.02 | 0.02 | 89 | 1004.2 |
| 20260507191404 | 56 | 0 | 0.0 | 0.0 | 0.00 | 0.02 | 0.02 | 89 | 1004.1 |
| 20260507191304 | 56 | 0 | 0.0 | 0.0 | 0.00 | 0.02 | 0.02 | 89 | 1004.2 |
| 20260507191204 | 56 | 0 | 0.0 | 0.0 | 0.00 | 0.02 | 0.02 | 89 | 1004.2 |
| 20260507191104 | 56 | 0 | 0.0 | 0.0 | 0.00 | 0.02 | 0.02 | 89 | 1004.2 |
| 20260507191004 | 56 | 0 | 0.0 | 0.0 | 0.00 | 0.02 | 0.02 | 89 | 1004.1 |
| 20260507190904 | 56 | 0 | 0.0 | 0.0 | 0.00 | 0.02 | 0.02 | 89 | 1004.0 |
| 20260507190804 | 56 | 0 | 0.0 | 0.0 | 0.00 | 0.02 | 0.02 | 89 | 1004.1 |
| 20260507190704 | 56 | 0 | 0.0 | 0.0 | 0.00 | 0.02 | 0.02 | 89 | 1004.1 |
| 20260507190604 | 56 | 0 | 0.0 | 0.0 | 0.00 | 0.02 | 0.02 | 89 | 1004.2 |
| 20260507190504 | 56 | 0 | 0.0 | 0.0 | 0.00 | 0.02 | 0.02 | 89 | 1004.1 |
| 20260507190404 | 56 | 0 | 0.0 | 0.0 | 0.00 | 0.02 | 0.02 | 89 | 1004.1 |
| 20260507190304 | 56 | 0 | 0.0 | 0.0 | 0.00 | 0.02 | 0.02 | 89 | 1004.1 |
| 20260507190204 | 56 | 0 | 0.0 | 0.0 | 0.00 | 0.02 | 0.02 | 89 | 1004.1 |
| 20260507190104 | 56 | 0 | 0.0 | 0.0 | 0.00 | 0.02 | 0.02 | 89 | 1004.0 |
| 20260507190004 | 56 | 0 | 0.0 | 0.0 | 0.00 | 0.02 | 0.02 | 89 | 1004.0 |
| 20260507185903 | 56 | 0 | 0.0 | 0.0 | 0.00 | 0.02 | 0.02 | 89 | 1003.9 |
| 20260507185803 | 56 | 0 | 0.0 | 0.0 | 0.00 | 0.02 | 0.02 | 89 | 1004.1 |
| 20260507185703 | 56 | 0 | 0.0 | 0.0 | 0.00 | 0.02 | 0.02 | 89 | 1004.0 |
| 20260507185603 | 56 | 0 | 0.0 | 0.0 | 0.00 | 0.02 | 0.02 | 89 | 1004.0 |
| 20260507185503 | 56 | 0 | 0.0 | 0.0 | 0.00 | 0.02 | 0.02 | 89 | 1004.1 |
| 20260507185403 | 56 | 0 | 0.0 | 0.0 | 0.00 | 0.02 | 0.02 | 89 | 1004.0 |
| 20260507185305 | 56 | 0 | 0.0 | 0.0 | 0.00 | 0.02 | 0.02 | 88 | 1004.1 |
| 20260507185203 | 56 | 0 | 0.0 | 0.0 | 0.00 | 0.02 | 0.02 | 88 | 1004.0 |
| 20260507185103 | 56 | 0 | 0.0 | 0.0 | 0.00 | 0.02 | 0.02 | 88 | 1004.0 |
| 20260507185003 | 56 | 0 | 0.0 | 0.0 | 0.00 | 0.02 | 0.02 | 88 | 1004.0 |
| 20260507184906 | 56 | 0 | 0.0 | 0.0 | 0.00 | 0.02 | 0.02 | 88 | 1003.9 |
| 20260507184803 | 56 | 0 | 0.0 | 0.0 | 0.00 | 0.02 | 0.02 | 88 | 1004.1 |
| 20260507184703 | 56 | 0 | 0.0 | 0.0 | 0.00 | 0.02 | 0.02 | 88 | 1004.0 |
| 20260507184603 | 56 | 0 | 0.0 | 0.0 | 0.00 | 0.02 | 0.02 | 88 | 1004.0 |
| 20260507184503 | 56 | 0 | 0.0 | 0.0 | 0.00 | 0.02 | 0.02 | 88 | 1003.9 |
| 20260507184404 | 56 | 0 | 0.0 | 0.0 | 0.00 | 0.02 | 0.02 | 88 | 1004.0 |
| 20260507184304 | 56 | 0 | 0.0 | 0.0 | 0.00 | 0.02 | 0.02 | 88 | 1004.0 |
| 20260507184204 | 56 | 0 | 0.0 | 0.0 | 0.00 | 0.02 | 0.02 | 88 | 1004.0 |
| 20260507184104 | 56 | 0 | 0.0 | 0.0 | 0.00 | 0.02 | 0.02 | 88 | 1004.1 |
| 20260507184004 | 56 | 0 | 0.0 | 0.0 | 0.00 | 0.02 | 0.02 | 88 | 1004.0 |
| 20260507183904 | 56 | 0 | 0.0 | 0.0 | 0.00 | 0.02 | 0.02 | 88 | 1003.9 |
| 20260507183804 | 56 | 0 | 0.0 | 0.0 | 0.00 | 0.02 | 0.02 | 88 | 1004.0 |
| 20260507183704 | 56 | 0 | 0.0 | 0.0 | 0.00 | 0.02 | 0.02 | 88 | 1004.1 |
| 20260507183604 | 56 | 0 | 0.0 | 0.0 | 0.00 | 0.02 | 0.02 | 88 | 1004.0 |
| 20260507183504 | 56 | 0 | 0.0 | 0.0 | 0.00 | 0.02 | 0.02 | 87 | 1004.0 |
| 20260507183404 | 56 | 0 | 0.0 | 0.0 | 0.00 | 0.02 | 0.02 | 87 | 1004.0 |
| 20260507183303 | 56 | 0 | 0.0 | 0.0 | 0.00 | 0.02 | 0.02 | 87 | 1004.1 |
| 20260507183203 | 56 | 0 | 0.0 | 0.0 | 0.00 | 0.02 | 0.02 | 87 | 1004.0 |
| 20260507183103 | 56 | 0 | 0.0 | 0.0 | 0.00 | 0.02 | 0.02 | 87 | 1004.1 |
| 20260507183003 | 56 | 135 | 0.0 | 1.0 | 0.00 | 0.02 | 0.02 | 87 | 1004.1 |
| 20260507182903 | 56 | 135 | 0.0 | 1.0 | 0.00 | 0.02 | 0.02 | 87 | 1004.1 |
| 20260507182803 | 56 | 135 | 0.0 | 1.0 | 0.00 | 0.02 | 0.02 | 87 | 1004.1 |
| 20260507182703 | 56 | 108 | 0.0 | 3.0 | 0.00 | 0.02 | 0.02 | 87 | 1004.1 |
| 20260507182603 | 56 | 108 | 0.0 | 3.0 | 0.00 | 0.02 | 0.02 | 87 | 1004.0 |
| 20260507182503 | 56 | 108 | 0.0 | 3.0 | 0.00 | 0.02 | 0.02 | 87 | 1004.0 |
| 20260507182403 | 56 | 109 | 0.0 | 3.0 | 0.00 | 0.02 | 0.02 | 87 | 1004.0 |
| 20260507182306 | 56 | 111 | 0.0 | 3.0 | 0.00 | 0.02 | 0.02 | 87 | 1004.0 |
| 20260507182203 | 56 | 111 | 0.0 | 3.0 | 0.00 | 0.02 | 0.02 | 87 | 1004.0 |
| 20260507182103 | 56 | 111 | 1.0 | 3.0 | 0.00 | 0.02 | 0.02 | 87 | 1004.1 |
| 20260507182003 | 56 | 106 | 1.0 | 3.0 | 0.00 | 0.02 | 0.02 | 87 | 1004.1 |
| 20260507181703 | 56 | 85 | 1.0 | 3.0 | 0.00 | 0.02 | 0.02 | 86 | 1004.2 |
| 20260507181604 | 56 | 107 | 1.0 | 3.0 | 0.00 | 0.02 | 0.02 | 86 | 1004.2 |
| 20260507181503 | 56 | 108 | 1.0 | 3.0 | 0.00 | 0.02 | 0.02 | 86 | 1004.3 |
| 20260507181403 | 57 | 115 | 1.0 | 3.0 | 0.00 | 0.02 | 0.02 | 86 | 1004.0 |
| 20260507181303 | 57 | 128 | 1.0 | 3.0 | 0.00 | 0.02 | 0.02 | 86 | 1004.2 |
| 20260507181203 | 57 | 131 | 1.0 | 3.0 | 0.00 | 0.02 | 0.02 | 86 | 1004.2 |
| 20260507181103 | 57 | 138 | 1.0 | 3.0 | 0.00 | 0.02 | 0.02 | 86 | 1004.2 |
| 20260507181003 | 57 | 144 | 1.0 | 3.0 | 0.00 | 0.02 | 0.02 | 86 | 1004.1 |
| 20260507180903 | 57 | 141 | 1.0 | 3.0 | 0.00 | 0.02 | 0.02 | 86 | 1004.1 |
| 20260507180803 | 57 | 143 | 1.0 | 3.0 | 0.00 | 0.02 | 0.02 | 86 | 1004.2 |
| 20260507180703 | 57 | 172 | 0.0 | 3.0 | 0.00 | 0.02 | 0.02 | 86 | 1004.0 |
| 20260507180603 | 57 | 177 | 0.0 | 1.0 | 0.00 | 0.02 | 0.02 | 86 | 1004.2 |
| 20260507180503 | 57 | 173 | 0.0 | 1.0 | 0.00 | 0.02 | 0.02 | 85 | 1004.2 |
| 20260507180403 | 57 | 171 | 0.0 | 1.0 | 0.00 | 0.02 | 0.02 | 85 | 1004.2 |
| 20260507180304 | 57 | 169 | 0.0 | 1.0 | 0.00 | 0.02 | 0.02 | 85 | 1004.1 |
| 20260507180204 | 57 | 164 | 0.0 | 1.0 | 0.00 | 0.02 | 0.02 | 85 | 1004.0 |
| 20260507180104 | 57 | 167 | 0.0 | 2.0 | 0.00 | 0.02 | 0.02 | 85 | 1004.0 |
| 20260507180004 | 57 | 174 | 0.0 | 3.0 | 0.00 | 0.02 | 0.02 | 85 | 1004.1 |
| 20260507175904 | 57 | 173 | 0.0 | 3.0 | 0.00 | 0.02 | 0.02 | 85 | 1004.1 |
| 20260507175804 | 57 | 173 | 0.0 | 3.0 | 0.00 | 0.02 | 0.02 | 85 | 1004.2 |
| 20260507175704 | 57 | 173 | 0.0 | 3.0 | 0.00 | 0.02 | 0.02 | 85 | 1004.2 |
| 20260507175604 | 57 | 177 | 0.0 | 3.0 | 0.00 | 0.02 | 0.02 | 85 | 1004.2 |
| 20260507175503 | 57 | 179 | 0.0 | 3.0 | 0.00 | 0.02 | 0.02 | 85 | 1004.2 |
| 20260507175403 | 57 | 164 | 1.0 | 3.0 | 0.01 | 0.02 | 0.02 | 84 | 1004.2 |
| 20260507175306 | 57 | 139 | 1.0 | 3.0 | 0.01 | 0.02 | 0.02 | 84 | 1004.2 |
| 20260507175203 | 57 | 136 | 1.0 | 3.0 | 0.02 | 0.02 | 0.02 | 84 | 1004.2 |
| 20260507175103 | 57 | 129 | 1.0 | 3.0 | 0.02 | 0.02 | 0.02 | 84 | 1004.2 |
| 20260507175003 | 57 | 111 | 1.0 | 3.0 | 0.02 | 0.02 | 0.02 | 84 | 1004.2 |
| 20260507174903 | 57 | 118 | 1.0 | 3.0 | 0.02 | 0.02 | 0.02 | 84 | 1004.1 |
| 20260507174803 | 57 | 118 | 1.0 | 3.0 | 0.02 | 0.02 | 0.02 | 84 | 1004.1 |
| 20260507174703 | 57 | 121 | 1.0 | 3.0 | 0.02 | 0.02 | 0.02 | 84 | 1004.0 |
| 20260507174603 | 57 | 132 | 1.0 | 3.0 | 0.02 | 0.02 | 0.02 | 83 | 1004.0 |
| 20260507174503 | 57 | 138 | 1.0 | 3.0 | 0.02 | 0.02 | 0.02 | 83 | 1004.0 |
| 20260507174404 | 57 | 142 | 1.0 | 3.0 | 0.02 | 0.02 | 0.02 | 83 | 1004.1 |
| 20260507174304 | 57 | 151 | 1.0 | 4.0 | 0.02 | 0.02 | 0.02 | 83 | 1004.0 |
| 20260507174204 | 57 | 148 | 1.0 | 4.0 | 0.02 | 0.02 | 0.02 | 83 | 1004.1 |
| 20260507174104 | 57 | 146 | 1.0 | 4.0 | 0.02 | 0.02 | 0.02 | 83 | 1004.0 |
| 20260507174004 | 57 | 144 | 1.0 | 4.0 | 0.02 | 0.02 | 0.02 | 82 | 1004.1 |
| 20260507173904 | 57 | 147 | 1.0 | 4.0 | 0.02 | 0.02 | 0.02 | 82 | 1004.1 |
| 20260507173804 | 57 | 147 | 1.0 | 4.0 | 0.02 | 0.02 | 0.02 | 82 | 1004.0 |
| 20260507173704 | 57 | 146 | 1.0 | 4.0 | 0.02 | 0.02 | 0.02 | 82 | 1004.0 |
| 20260507173604 | 57 | 142 | 1.0 | 4.0 | 0.02 | 0.02 | 0.02 | 82 | 1004.0 |
| 20260507173504 | 57 | 138 | 1.0 | 4.0 | 0.02 | 0.02 | 0.02 | 82 | 1004.0 |
| 20260507173404 | 58 | 138 | 1.0 | 4.0 | 0.02 | 0.02 | 0.02 | 81 | 1004.0 |
| 20260507173304 | 58 | 142 | 1.0 | 4.0 | 0.02 | 0.02 | 0.02 | 81 | 1004.1 |
| 20260507173204 | 58 | 164 | 0.0 | 2.0 | 0.02 | 0.02 | 0.02 | 81 | 1004.1 |
| 20260507173103 | 58 | 180 | 0.0 | 2.0 | 0.02 | 0.02 | 0.02 | 81 | 1004.1 |
| 20260507173004 | 58 | 180 | 0.0 | 2.0 | 0.02 | 0.02 | 0.02 | 81 | 1004.1 |
| 20260507172903 | 58 | 0 | 0.0 | 0.0 | 0.02 | 0.02 | 0.02 | 81 | 1004.1 |
| 20260507172803 | 58 | 0 | 0.0 | 0.0 | 0.02 | 0.02 | 0.02 | 81 | 1004.1 |
| 20260507172703 | 58 | 0 | 0.0 | 0.0 | 0.02 | 0.02 | 0.02 | 80 | 1004.1 |
| 20260507172603 | 58 | 149 | 0.0 | 2.0 | 0.02 | 0.02 | 0.02 | 80 | 1004.1 |
| 20260507172503 | 58 | 149 | 0.0 | 2.0 | 0.02 | 0.02 | 0.02 | 80 | 1004.2 |
| 20260507172403 | 58 | 149 | 0.0 | 2.0 | 0.02 | 0.02 | 0.02 | 80 | 1004.1 |
| 20260507172307 | 58 | 149 | 0.0 | 2.0 | 0.02 | 0.02 | 0.02 | 80 | 1004.1 |
| 20260507172203 | 58 | 150 | 0.0 | 2.0 | 0.02 | 0.02 | 0.02 | 80 | 1004.0 |
| 20260507172103 | 58 | 150 | 0.0 | 2.0 | 0.02 | 0.02 | 0.02 | 80 | 1004.2 |
| 20260507172003 | 58 | 150 | 1.0 | 2.0 | 0.02 | 0.02 | 0.02 | 80 | 1004.3 |
| 20260507171704 | 58 | 150 | 0.0 | 2.0 | 0.02 | 0.02 | 0.02 | 79 | 1004.2 |
| 20260507171604 | 58 | 149 | 0.0 | 2.0 | 0.02 | 0.02 | 0.02 | 79 | 1004.1 |
| 20260507171504 | 58 | 140 | 1.0 | 2.0 | 0.02 | 0.02 | 0.02 | 78 | 1004.3 |
| 20260507171404 | 58 | 142 | 1.0 | 2.0 | 0.02 | 0.02 | 0.02 | 78 | 1004.2 |
| 20260507171304 | 58 | 149 | 1.0 | 2.0 | 0.02 | 0.02 | 0.02 | 78 | 1004.2 |
| 20260507171204 | 58 | 151 | 1.0 | 2.0 | 0.02 | 0.02 | 0.02 | 77 | 1004.1 |
| 20260507171103 | 58 | 151 | 1.0 | 3.0 | 0.02 | 0.02 | 0.02 | 77 | 1004.1 |
| 20260507171003 | 58 | 156 | 1.0 | 3.0 | 0.02 | 0.02 | 0.02 | 77 | 1004.2 |
| 20260507170903 | 58 | 145 | 1.0 | 4.0 | 0.02 | 0.02 | 0.02 | 76 | 1004.2 |
| 20260507170803 | 58 | 148 | 2.0 | 4.0 | 0.02 | 0.02 | 0.02 | 76 | 1004.2 |
| 20260507170703 | 58 | 145 | 2.0 | 4.0 | 0.02 | 0.02 | 0.02 | 76 | 1004.1 |
| 20260507170603 | 58 | 143 | 2.0 | 4.0 | 0.02 | 0.02 | 0.02 | 76 | 1004.1 |
| 20260507170503 | 59 | 143 | 2.0 | 4.0 | 0.02 | 0.02 | 0.02 | 75 | 1004.2 |
| 20260507170403 | 59 | 140 | 2.0 | 4.0 | 0.02 | 0.02 | 0.02 | 75 | 1004.2 |
| 20260507170303 | 59 | 139 | 2.0 | 4.0 | 0.02 | 0.02 | 0.02 | 75 | 1004.2 |
| 20260507170203 | 59 | 146 | 3.0 | 8.0 | 0.02 | 0.02 | 0.02 | 74 | 1004.2 |
| 20260507170103 | 59 | 165 | 3.0 | 8.0 | 0.02 | 0.02 | 0.02 | 74 | 1004.3 |
| 20260507170004 | 59 | 170 | 3.0 | 8.0 | 0.02 | 0.02 | 0.02 | 74 | 1004.3 |
| 20260507165904 | 59 | 180 | 3.0 | 8.0 | 0.02 | 0.02 | 0.02 | 74 | 1004.3 |
| 20260507165804 | 60 | 183 | 3.0 | 8.0 | 0.02 | 0.02 | 0.02 | 73 | 1004.3 |
| 20260507165704 | 60 | 181 | 4.0 | 8.0 | 0.02 | 0.02 | 0.02 | 73 | 1004.3 |
| 20260507165605 | 60 | 177 | 4.0 | 8.0 | 0.02 | 0.02 | 0.02 | 73 | 1004.2 |
| 20260507165504 | 60 | 179 | 4.0 | 8.0 | 0.01 | 0.01 | 0.01 | 73 | 1004.2 |
| 20260507165404 | 60 | 175 | 5.0 | 8.0 | 0.01 | 0.01 | 0.01 | 72 | 1004.3 |
| 20260507165306 | 60 | 175 | 5.0 | 8.0 | 0.00 | 0.00 | 0.00 | 72 | 1004.2 |
| 20260507165204 | 61 | 174 | 5.0 | 8.0 | 0.00 | 0.00 | 0.00 | 72 | 1004.3 |
| 20260507165105 | 61 | 164 | 4.0 | 8.0 | 0.00 | 0.00 | 0.00 | 72 | 1004.3 |
| 20260507165004 | 61 | 161 | 4.0 | 7.0 | 0.00 | 0.00 | 0.00 | 71 | 1004.4 |
| 20260507164903 | 61 | 155 | 4.0 | 7.0 | 0.00 | 0.00 | 0.00 | 71 | 1004.2 |
| 20260507164803 | 61 | 148 | 4.0 | 7.0 | 0.00 | 0.00 | 0.00 | 71 | 1004.3 |
| 20260507164703 | 61 | 144 | 4.0 | 7.0 | 0.00 | 0.00 | 0.00 | 71 | 1004.5 |
| 20260507164603 | 61 | 146 | 4.0 | 7.0 | 0.00 | 0.00 | 0.00 | 70 | 1004.2 |
| 20260507164504 | 62 | 139 | 4.0 | 7.0 | 0.00 | 0.00 | 0.00 | 70 | 1004.2 |
| 20260507164403 | 62 | 139 | 4.0 | 6.0 | 0.00 | 0.00 | 0.00 | 70 | 1004.2 |
| 20260507164303 | 62 | 137 | 4.0 | 6.0 | 0.00 | 0.00 | 0.00 | 70 | 1004.2 |
| 20260507164203 | 62 | 136 | 4.0 | 6.0 | 0.00 | 0.00 | 0.00 | 69 | 1004.2 |
| 20260507164103 | 62 | 139 | 4.0 | 6.0 | 0.00 | 0.00 | 0.00 | 68 | 1004.2 |
| 20260507164003 | 62 | 136 | 3.0 | 6.0 | 0.00 | 0.00 | 0.00 | 68 | 1004.3 |
| 20260507163904 | 62 | 138 | 3.0 | 6.0 | 0.00 | 0.00 | 0.00 | 67 | 1004.2 |
| 20260507163804 | 62 | 144 | 3.0 | 6.0 | 0.00 | 0.00 | 0.00 | 66 | 1004.4 |
| 20260507163704 | 62 | 149 | 3.0 | 4.0 | 0.00 | 0.00 | 0.00 | 66 | 1004.3 |
| 20260507163604 | 62 | 152 | 3.0 | 4.0 | 0.00 | 0.00 | 0.00 | 65 | 1004.4 |
| 20260507163504 | 62 | 156 | 3.0 | 4.0 | 0.00 | 0.00 | 0.00 | 65 | 1004.3 |
| 20260507163404 | 62 | 155 | 3.0 | 4.0 | 0.00 | 0.00 | 0.00 | 64 | 1004.2 |
| 20260507163304 | 62 | 160 | 3.0 | 4.0 | 0.00 | 0.00 | 0.00 | 63 | 1004.4 |
| 20260507163204 | 62 | 156 | 3.0 | 4.0 | 0.00 | 0.00 | 0.00 | 63 | 1004.2 |
| 20260507163103 | 62 | 156 | 3.0 | 4.0 | 0.00 | 0.00 | 0.00 | 62 | 1004.4 |
| 20260507163004 | 62 | 160 | 3.0 | 4.0 | 0.00 | 0.00 | 0.00 | 61 | 1004.2 |
| 20260507162903 | 62 | 163 | 3.0 | 4.0 | 0.00 | 0.00 | 0.00 | 61 | 1004.3 |
| 20260507162803 | 62 | 164 | 3.0 | 4.0 | 0.00 | 0.00 | 0.00 | 61 | 1004.4 |
| 20260507162703 | 62 | 167 | 3.0 | 4.0 | 0.00 | 0.00 | 0.00 | 60 | 1004.4 |
| 20260507162603 | 63 | 166 | 3.0 | 4.0 | 0.00 | 0.00 | 0.00 | 59 | 1004.3 |
| 20260507162503 | 63 | 164 | 2.0 | 4.0 | 0.00 | 0.00 | 0.00 | 58 | 1004.3 |
| 20260507162403 | 63 | 177 | 2.0 | 3.0 | 0.00 | 0.00 | 0.00 | 57 | 1004.3 |
| 20260507162306 | 63 | 176 | 2.0 | 3.0 | 0.00 | 0.00 | 0.00 | 57 | 1004.3 |
| 20260507162203 | 63 | 190 | 2.0 | 2.0 | 0.00 | 0.00 | 0.00 | 55 | 1004.1 |
| 20260507162109 | 63 | 185 | 2.0 | 2.0 | 0.00 | 0.00 | 0.00 | 55 | 1004.0 |
| 20260507162003 | 63 | 179 | 2.0 | 3.0 | 0.00 | 0.00 | 0.00 | 55 | 1004.1 |
| 20260507161704 | 63 | 178 | 2.0 | 3.0 | 0.00 | 0.00 | 0.00 | 54 | 1004.1 |
| 20260507161604 | 63 | 178 | 2.0 | 3.0 | 0.00 | 0.00 | 0.00 | 54 | 1004.1 |
| 20260507161504 | 63 | 178 | 2.0 | 3.0 | 0.00 | 0.00 | 0.00 | 54 | 1004.1 |
| 20260507161406 | 63 | 178 | 2.0 | 3.0 | 0.00 | 0.00 | 0.00 | 53 | 1003.9 |
| 20260507161204 | 63 | 180 | 2.0 | 3.0 | 0.00 | 0.00 | 0.00 | 53 | 1004.2 |
| 20260507161104 | 63 | 180 | 2.0 | 3.0 | 0.00 | 0.00 | 0.00 | 52 | 1004.2 |
| 20260507161004 | 63 | 180 | 2.0 | 3.0 | 0.00 | 0.00 | 0.00 | 52 | 1004.1 |
| 20260507160904 | 64 | 180 | 2.0 | 3.0 | 0.00 | 0.00 | 0.00 | 49 | 1004.2 |
| 20260507160803 | 64 | 180 | 2.0 | 3.0 | 0.00 | 0.00 | 0.00 | 48 | 1004.2 |
| 20260507160703 | 64 | 178 | 2.0 | 4.0 | 0.00 | 0.00 | 0.00 | 48 | 1004.4 |
| 20260507160603 | 64 | 172 | 2.0 | 4.0 | 0.00 | 0.00 | 0.00 | 45 | 1004.3 |
| 20260507160503 | 64 | 161 | 2.0 | 4.0 | 0.00 | 0.00 | 0.00 | 45 | 1004.3 |
| 20260507160403 | 64 | 149 | 2.0 | 4.0 | 0.00 | 0.00 | 0.00 | 45 | 1004.3 |
| 20260507160303 | 64 | 136 | 2.0 | 4.0 | 0.00 | 0.00 | 0.00 | 45 | 1004.2 |
| 20260507160203 | 64 | 137 | 2.0 | 4.0 | 0.00 | 0.00 | 0.00 | 45 | 1004.3 |
| 20260507160003 | 64 | 126 | 3.0 | 5.0 | 0.00 | 0.00 | 0.00 | 45 | 1004.4 |
| 20260507155903 | 64 | 131 | 3.0 | 5.0 | 0.00 | 0.00 | 0.00 | 45 | 1004.3 |
| 20260507155803 | 64 | 122 | 4.0 | 5.0 | 0.00 | 0.00 | 0.00 | 44 | 1004.2 |
| 20260507155704 | 64 | 130 | 4.0 | 5.0 | 0.00 | 0.00 | 0.00 | 44 | 1004.1 |
| 20260507155604 | 64 | 124 | 4.0 | 5.0 | 0.00 | 0.00 | 0.00 | 44 | 1004.2 |
| 20260507155504 | 64 | 129 | 4.0 | 5.0 | 0.00 | 0.00 | 0.00 | 43 | 1004.2 |
| 20260507155404 | 64 | 136 | 4.0 | 5.0 | 0.00 | 0.00 | 0.00 | 43 | 1004.2 |
| 20260507155306 | 64 | 147 | 4.0 | 5.0 | 0.00 | 0.00 | 0.00 | 43 | 1004.2 |
| 20260507155204 | 64 | 140 | 4.0 | 5.0 | 0.00 | 0.00 | 0.00 | 43 | 1004.2 |
| 20260507155104 | 64 | 135 | 4.0 | 5.0 | 0.00 | 0.00 | 0.00 | 42 | 1004.2 |
| 20260507155004 | 64 | 146 | 3.0 | 4.0 | 0.00 | 0.00 | 0.00 | 42 | 1004.2 |
| 20260507154903 | 64 | 138 | 3.0 | 4.0 | 0.00 | 0.00 | 0.00 | 42 | 1004.0 |
| 20260507154803 | 64 | 141 | 3.0 | 4.0 | 0.00 | 0.00 | 0.00 | 42 | 1004.2 |
| 20260507154704 | 64 | 142 | 3.0 | 4.0 | 0.00 | 0.00 | 0.00 | 42 | 1004.2 |
| 20260507154603 | 64 | 157 | 3.0 | 4.0 | 0.00 | 0.00 | 0.00 | 42 | 1004.2 |
| 20260507154504 | 64 | 174 | 3.0 | 4.0 | 0.00 | 0.00 | 0.00 | 42 | 1004.3 |
| 20260507154403 | 64 | 202 | 2.0 | 4.0 | 0.00 | 0.00 | 0.00 | 42 | 1004.2 |
| 20260507154303 | 64 | 246 | 2.0 | 4.0 | 0.00 | 0.00 | 0.00 | 42 | 1004.2 |
| 20260507154203 | 64 | 305 | 2.0 | 4.0 | 0.00 | 0.00 | 0.00 | 42 | 1004.2 |
| 20260507154103 | 64 | 334 | 2.0 | 4.0 | 0.00 | 0.00 | 0.00 | 42 | 1004.2 |
| 20260507154003 | 64 | 330 | 2.0 | 4.0 | 0.00 | 0.00 | 0.00 | 42 | 1004.2 |
| 20260507153903 | 64 | 157 | 2.0 | 4.0 | 0.00 | 0.00 | 0.00 | 43 | 1004.0 |
| 20260507153804 | 64 | 140 | 2.0 | 4.0 | 0.00 | 0.00 | 0.00 | 43 | 1004.2 |
| 20260507153704 | 64 | 113 | 2.0 | 4.0 | 0.00 | 0.00 | 0.00 | 43 | 1004.2 |
| 20260507153604 | 64 | 121 | 2.0 | 4.0 | 0.00 | 0.00 | 0.00 | 43 | 1004.3 |
| 20260507153504 | 64 | 134 | 2.0 | 4.0 | 0.00 | 0.00 | 0.00 | 43 | 1004.2 |
| 20260507153404 | 64 | 142 | 2.0 | 4.0 | 0.00 | 0.00 | 0.00 | 43 | 1004.2 |
| 20260507153304 | 64 | 152 | 3.0 | 4.0 | 0.00 | 0.00 | 0.00 | 43 | 1004.2 |
| 20260507153204 | 64 | 164 | 3.0 | 4.0 | 0.00 | 0.00 | 0.00 | 44 | 1004.2 |
| 20260507153103 | 64 | 149 | 3.0 | 4.0 | 0.00 | 0.00 | 0.00 | 44 | 1004.2 |
| 20260507153004 | 65 | 140 | 3.0 | 4.0 | 0.00 | 0.00 | 0.00 | 44 | 1004.2 |
| 20260507152903 | 65 | 133 | 3.0 | 4.0 | 0.00 | 0.00 | 0.00 | 44 | 1004.4 |
| 20260507152803 | 65 | 143 | 3.0 | 4.0 | 0.00 | 0.00 | 0.00 | 44 | 1004.2 |
| 20260507152703 | 65 | 148 | 3.0 | 4.0 | 0.00 | 0.00 | 0.00 | 45 | 1004.1 |
| 20260507152603 | 65 | 152 | 3.0 | 4.0 | 0.00 | 0.00 | 0.00 | 46 | 1004.2 |
| 20260507152503 | 65 | 142 | 3.0 | 4.0 | 0.00 | 0.00 | 0.00 | 46 | 1004.1 |
| 20260507152403 | 65 | 134 | 3.0 | 5.0 | 0.00 | 0.00 | 0.00 | 46 | 1004.2 |
| 20260507152306 | 65 | 112 | 3.0 | 5.0 | 0.00 | 0.00 | 0.00 | 47 | 1004.2 |
| 20260507152203 | 65 | 106 | 4.0 | 5.0 | 0.00 | 0.00 | 0.00 | 48 | 1004.3 |
| 20260507152103 | 65 | 129 | 4.0 | 5.0 | 0.00 | 0.00 | 0.00 | 49 | 1004.3 |
| 20260507152003 | 65 | 157 | 3.0 | 5.0 | 0.00 | 0.00 | 0.00 | 50 | 1004.3 |
| 20260507151703 | 65 | 167 | 3.0 | 5.0 | 0.00 | 0.00 | 0.00 | 52 | 1004.2 |
| 20260507151603 | 65 | 169 | 3.0 | 5.0 | 0.00 | 0.00 | 0.00 | 53 | 1004.1 |
| 20260507151503 | 65 | 168 | 3.0 | 5.0 | 0.00 | 0.00 | 0.00 | 53 | 1004.1 |
| 20260507151403 | 65 | 168 | 3.0 | 5.0 | 0.00 | 0.00 | 0.00 | 54 | 1004.1 |
| 20260507151304 | 65 | 154 | 2.0 | 4.0 | 0.00 | 0.00 | 0.00 | 54 | 1004.0 |
| 20260507151204 | 65 | 147 | 2.0 | 4.0 | 0.00 | 0.00 | 0.00 | 55 | 1004.1 |
| 20260507151104 | 65 | 151 | 1.0 | 4.0 | 0.00 | 0.00 | 0.00 | 56 | 1004.0 |
| 20260507151004 | 65 | 160 | 1.0 | 4.0 | 0.00 | 0.00 | 0.00 | 58 | 1003.9 |
| 20260507150904 | 65 | 154 | 1.0 | 2.0 | 0.00 | 0.00 | 0.00 | 59 | 1003.9 |
| 20260507150804 | 65 | 171 | 1.0 | 2.0 | 0.00 | 0.00 | 0.00 | 60 | 1003.9 |
| 20260507150704 | 65 | 185 | 1.0 | 2.0 | 0.00 | 0.00 | 0.00 | 60 | 1004.0 |
| 20260507150604 | 65 | 195 | 1.0 | 2.0 | 0.00 | 0.00 | 0.00 | 63 | 1003.9 |
| 20260507150504 | 65 | 189 | 1.0 | 2.0 | 0.00 | 0.00 | 0.00 | 63 | 1003.9 |
| 20260507150404 | 65 | 181 | 1.0 | 2.0 | 0.00 | 0.00 | 0.00 | 63 | 1004.0 |
| 20260507150304 | 65 | 179 | 2.0 | 4.0 | 0.00 | 0.00 | 0.00 | 63 | 1004.0 |
| 20260507150204 | 65 | 182 | 2.0 | 4.0 | 0.00 | 0.00 | 0.00 | 63 | 1004.0 |
| 20260507150103 | 65 | 185 | 2.0 | 5.0 | 0.00 | 0.00 | 0.00 | 63 | 1004.0 |
| 20260507150004 | 65 | 174 | 3.0 | 5.0 | 0.00 | 0.00 | 0.00 | 63 | 1003.9 |
| 20260507145903 | 65 | 166 | 3.0 | 5.0 | 0.00 | 0.00 | 0.00 | 63 | 1003.9 |
| 20260507145803 | 64 | 155 | 3.0 | 5.0 | 0.00 | 0.00 | 0.00 | 64 | 1004.2 |
| 20260507145703 | 64 | 152 | 3.0 | 5.0 | 0.00 | 0.00 | 0.00 | 64 | 1003.9 |
| 20260507145603 | 64 | 148 | 3.0 | 5.0 | 0.00 | 0.00 | 0.00 | 64 | 1004.0 |
| 20260507145503 | 64 | 145 | 3.0 | 5.0 | 0.00 | 0.00 | 0.00 | 64 | 1003.9 |
| 20260507145403 | 64 | 160 | 3.0 | 5.0 | 0.00 | 0.00 | 0.00 | 65 | 1003.8 |
| 20260507145306 | 64 | 163 | 3.0 | 5.0 | 0.00 | 0.00 | 0.00 | 66 | 1004.0 |
| 20260507145203 | 64 | 164 | 3.0 | 5.0 | 0.00 | 0.00 | 0.00 | 66 | 1003.9 |
| 20260507145103 | 64 | 138 | 3.0 | 5.0 | 0.00 | 0.00 | 0.00 | 66 | 1004.0 |
| 20260507145003 | 64 | 156 | 2.0 | 3.0 | 0.00 | 0.00 | 0.00 | 67 | 1003.9 |
| 20260507144903 | 64 | 172 | 2.0 | 4.0 | 0.00 | 0.00 | 0.00 | 68 | 1004.0 |
| 20260507144804 | 64 | 171 | 3.0 | 4.0 | 0.00 | 0.00 | 0.00 | 68 | 1004.0 |
| 20260507144704 | 64 | 171 | 2.0 | 4.0 | 0.00 | 0.00 | 0.00 | 68 | 1004.1 |
| 20260507144604 | 64 | 167 | 2.0 | 4.0 | 0.00 | 0.00 | 0.00 | 69 | 1004.1 |
| 20260507144504 | 64 | 176 | 2.0 | 4.0 | 0.00 | 0.00 | 0.00 | 69 | 1004.1 |
| 20260507144404 | 64 | 176 | 3.0 | 4.0 | 0.00 | 0.00 | 0.00 | 69 | 1004.1 |
| 20260507144304 | 64 | 168 | 2.0 | 4.0 | 0.00 | 0.00 | 0.00 | 69 | 1004.1 |
| 20260507144204 | 64 | 157 | 2.0 | 4.0 | 0.00 | 0.00 | 0.00 | 69 | 1004.1 |
| 20260507144104 | 64 | 166 | 2.0 | 4.0 | 0.00 | 0.00 | 0.00 | 69 | 1004.2 |
| 20260507144004 | 64 | 171 | 2.0 | 4.0 | 0.00 | 0.00 | 0.00 | 69 | 1004.1 |
| 20260507143904 | 64 | 168 | 2.0 | 4.0 | 0.00 | 0.00 | 0.00 | 69 | 1004.1 |
| 20260507143804 | 64 | 172 | 2.0 | 4.0 | 0.00 | 0.00 | 0.00 | 69 | 1004.2 |
| 20260507143704 | 64 | 172 | 1.0 | 4.0 | 0.00 | 0.00 | 0.00 | 69 | 1004.2 |
| 20260507143604 | 64 | 173 | 1.0 | 4.0 | 0.00 | 0.00 | 0.00 | 69 | 1004.2 |
| 20260507143503 | 64 | 170 | 1.0 | 4.0 | 0.00 | 0.00 | 0.00 | 69 | 1004.1 |
| 20260507143403 | 64 | 162 | 1.0 | 3.0 | 0.00 | 0.00 | 0.00 | 69 | 1004.1 |
| 20260507143303 | 64 | 166 | 1.0 | 3.0 | 0.00 | 0.00 | 0.00 | 69 | 1004.3 |
| 20260507143203 | 64 | 173 | 1.0 | 3.0 | 0.00 | 0.00 | 0.00 | 69 | 1004.2 |
| 20260507143103 | 64 | 173 | 1.0 | 3.0 | 0.00 | 0.00 | 0.00 | 69 | 1004.3 |
| 20260507143003 | 64 | 173 | 1.0 | 3.0 | 0.00 | 0.00 | 0.00 | 68 | 1004.2 |
| 20260507142903 | 64 | 172 | 1.0 | 3.0 | 0.00 | 0.00 | 0.00 | 68 | 1004.3 |
| 20260507142803 | 64 | 172 | 1.0 | 3.0 | 0.00 | 0.00 | 0.00 | 68 | 1004.2 |
| 20260507142703 | 64 | 169 | 1.0 | 3.0 | 0.00 | 0.00 | 0.00 | 68 | 1004.1 |
| 20260507142603 | 64 | 169 | 1.0 | 3.0 | 0.00 | 0.00 | 0.00 | 67 | 1004.3 |
| 20260507142503 | 64 | 162 | 1.0 | 2.0 | 0.00 | 0.00 | 0.00 | 67 | 1004.3 |
| 20260507142403 | 64 | 169 | 0.0 | 2.0 | 0.00 | 0.00 | 0.00 | 67 | 1004.2 |
| 20260507142306 | 64 | 171 | 0.0 | 2.0 | 0.00 | 0.00 | 0.00 | 67 | 1004.2 |
| 20260507142204 | 64 | 172 | 0.0 | 2.0 | 0.00 | 0.00 | 0.00 | 67 | 1004.3 |
| 20260507142104 | 64 | 165 | 1.0 | 3.0 | 0.00 | 0.00 | 0.00 | 66 | 1004.1 |
| 20260507142004 | 64 | 150 | 1.0 | 3.0 | 0.00 | 0.00 | 0.00 | 66 | 1004.4 |
| 20260507141703 | 64 | 156 | 2.0 | 4.0 | 0.00 | 0.00 | 0.00 | 65 | 1004.2 |
| 20260507141603 | 64 | 148 | 2.0 | 4.0 | 0.00 | 0.00 | 0.00 | 65 | 1004.2 |
| 20260507141503 | 64 | 148 | 2.0 | 4.0 | 0.00 | 0.00 | 0.00 | 65 | 1004.2 |
| 20260507141403 | 64 | 148 | 2.0 | 4.0 | 0.00 | 0.00 | 0.00 | 65 | 1004.4 |
| 20260507141303 | 64 | 146 | 2.0 | 4.0 | 0.00 | 0.00 | 0.00 | 64 | 1004.3 |
| 20260507141203 | 64 | 148 | 2.0 | 4.0 | 0.00 | 0.00 | 0.00 | 64 | 1004.2 |
| 20260507141103 | 64 | 149 | 2.0 | 4.0 | 0.00 | 0.00 | 0.00 | 64 | 1004.4 |
| 20260507141003 | 64 | 143 | 1.0 | 4.0 | 0.00 | 0.00 | 0.00 | 63 | 1004.4 |
| 20260507140903 | 64 | 143 | 1.0 | 4.0 | 0.00 | 0.00 | 0.00 | 63 | 1004.3 |
| 20260507140803 | 64 | 141 | 1.0 | 3.0 | 0.00 | 0.00 | 0.00 | 63 | 1004.4 |
| 20260507140703 | 64 | 148 | 1.0 | 2.0 | 0.00 | 0.00 | 0.00 | 63 | 1004.4 |
| 20260507140604 | 64 | 180 | 1.0 | 2.0 | 0.00 | 0.00 | 0.00 | 62 | 1004.3 |
| 20260507140507 | 64 | 180 | 1.0 | 3.0 | 0.00 | 0.00 | 0.00 | 62 | 1004.4 |
| 20260507140404 | 64 | 180 | 1.0 | 3.0 | 0.00 | 0.00 | 0.00 | 62 | 1004.5 |
| 20260507140304 | 64 | 177 | 1.0 | 5.0 | 0.00 | 0.00 | 0.00 | 62 | 1004.3 |
| 20260507140204 | 64 | 165 | 2.0 | 5.0 | 0.00 | 0.00 | 0.00 | 61 | 1004.4 |
| 20260507140104 | 64 | 164 | 2.0 | 5.0 | 0.00 | 0.00 | 0.00 | 61 | 1004.4 |
| 20260507140004 | 64 | 161 | 2.0 | 5.0 | 0.00 | 0.00 | 0.00 | 61 | 1004.4 |
| 20260507135903 | 64 | 160 | 2.0 | 5.0 | 0.00 | 0.00 | 0.00 | 61 | 1004.4 |
| 20260507135804 | 64 | 159 | 3.0 | 5.0 | 0.00 | 0.00 | 0.00 | 60 | 1004.6 |
| 20260507135703 | 64 | 155 | 3.0 | 6.0 | 0.00 | 0.00 | 0.00 | 60 | 1004.4 |
| 20260507135604 | 65 | 151 | 3.0 | 6.0 | 0.00 | 0.00 | 0.00 | 60 | 1004.5 |
| 20260507135503 | 65 | 148 | 3.0 | 6.0 | 0.00 | 0.00 | 0.00 | 60 | 1004.6 |
| 20260507135403 | 65 | 146 | 3.0 | 6.0 | 0.00 | 0.00 | 0.00 | 59 | 1004.5 |
| 20260507135306 | 65 | 146 | 3.0 | 6.0 | 0.00 | 0.00 | 0.00 | 58 | 1004.7 |
| 20260507135203 | 65 | 147 | 3.0 | 6.0 | 0.00 | 0.00 | 0.00 | 57 | 1004.6 |
| 20260507135103 | 65 | 140 | 2.0 | 6.0 | 0.00 | 0.00 | 0.00 | 57 | 1004.5 |
| 20260507135003 | 65 | 140 | 2.0 | 6.0 | 0.00 | 0.00 | 0.00 | 56 | 1004.7 |
| 20260507134903 | 66 | 139 | 2.0 | 6.0 | 0.00 | 0.00 | 0.00 | 55 | 1004.5 |
| 20260507134803 | 66 | 137 | 2.0 | 6.0 | 0.00 | 0.00 | 0.00 | 55 | 1004.6 |
| 20260507134703 | 66 | 140 | 2.0 | 6.0 | 0.00 | 0.00 | 0.00 | 54 | 1004.6 |
| 20260507134603 | 66 | 144 | 2.0 | 4.0 | 0.00 | 0.00 | 0.00 | 54 | 1004.5 |
| 20260507134505 | 66 | 149 | 2.0 | 4.0 | 0.00 | 0.00 | 0.00 | 53 | 1004.6 |
| 20260507134404 | 66 | 139 | 3.0 | 4.0 | 0.00 | 0.00 | 0.00 | 53 | 1004.6 |
| 20260507134304 | 67 | 135 | 3.0 | 4.0 | 0.00 | 0.00 | 0.00 | 53 | 1004.7 |
| 20260507134204 | 67 | 119 | 3.0 | 4.0 | 0.00 | 0.00 | 0.00 | 53 | 1004.6 |
| 20260507134104 | 67 | 127 | 3.0 | 4.0 | 0.00 | 0.00 | 0.00 | 53 | 1004.5 |
| 20260507134004 | 67 | 128 | 3.0 | 4.0 | 0.00 | 0.00 | 0.00 | 52 | 1004.5 |
| 20260507133904 | 67 | 129 | 3.0 | 4.0 | 0.00 | 0.00 | 0.00 | 52 | 1004.6 |
| 20260507133804 | 68 | 134 | 3.0 | 4.0 | 0.00 | 0.00 | 0.00 | 52 | 1004.5 |
| 20260507133703 | 68 | 118 | 3.0 | 4.0 | 0.00 | 0.00 | 0.00 | 52 | 1004.7 |
| 20260507133604 | 68 | 121 | 3.0 | 4.0 | 0.00 | 0.00 | 0.00 | 51 | 1004.6 |
| 20260507133503 | 68 | 100 | 3.0 | 4.0 | 0.00 | 0.00 | 0.00 | 51 | 1004.6 |
| 20260507133403 | 68 | 115 | 3.0 | 4.0 | 0.00 | 0.00 | 0.00 | 51 | 1004.6 |
| 20260507133303 | 69 | 122 | 4.0 | 4.0 | 0.00 | 0.00 | 0.00 | 51 | 1004.5 |
| 20260507133203 | 69 | 123 | 4.0 | 4.0 | 0.00 | 0.00 | 0.00 | 51 | 1004.5 |
| 20260507133103 | 69 | 123 | 4.0 | 5.0 | 0.00 | 0.00 | 0.00 | 51 | 1004.6 |
| 20260507133003 | 69 | 108 | 4.0 | 6.0 | 0.00 | 0.00 | 0.00 | 51 | 1004.6 |
| 20260507132903 | 69 | 98 | 4.0 | 6.0 | 0.00 | 0.00 | 0.00 | 51 | 1004.5 |
| 20260507132803 | 70 | 88 | 4.0 | 6.0 | 0.00 | 0.00 | 0.00 | 51 | 1004.6 |
| 20260507132703 | 70 | 96 | 4.0 | 6.0 | 0.00 | 0.00 | 0.00 | 51 | 1004.6 |
| 20260507132603 | 70 | 85 | 4.0 | 6.0 | 0.00 | 0.00 | 0.00 | 51 | 1004.5 |
| 20260507132504 | 70 | 99 | 4.0 | 6.0 | 0.00 | 0.00 | 0.00 | 51 | 1004.5 |
| 20260507132404 | 70 | 96 | 5.0 | 6.0 | 0.00 | 0.00 | 0.00 | 52 | 1004.6 |
| 20260507132307 | 70 | 78 | 5.0 | 6.0 | 0.00 | 0.00 | 0.00 | 52 | 1004.6 |
| 20260507132204 | 70 | 106 | 5.0 | 6.0 | 0.00 | 0.00 | 0.00 | 52 | 1004.7 |
| 20260507132104 | 70 | 112 | 5.0 | 6.0 | 0.00 | 0.00 | 0.00 | 51 | 1004.6 |
| 20260507132004 | 70 | 145 | 4.0 | 6.0 | 0.00 | 0.00 | 0.00 | 51 | 1004.7 |
| 20260507131703 | 70 | 102 | 4.0 | 5.0 | 0.00 | 0.00 | 0.00 | 51 | 1004.6 |
| 20260507131603 | 70 | 119 | 4.0 | 5.0 | 0.00 | 0.00 | 0.00 | 51 | 1004.6 |
| 20260507131503 | 70 | 139 | 4.0 | 5.0 | 0.00 | 0.00 | 0.00 | 51 | 1004.7 |
| 20260507131403 | 70 | 157 | 4.0 | 4.0 | 0.00 | 0.00 | 0.00 | 51 | 1004.7 |
| 20260507131303 | 70 | 161 | 4.0 | 4.0 | 0.00 | 0.00 | 0.00 | 51 | 1004.7 |
| 20260507131203 | 70 | 175 | 4.0 | 4.0 | 0.00 | 0.00 | 0.00 | 51 | 1004.5 |
| 20260507131103 | 70 | 185 | 4.0 | 4.0 | 0.00 | 0.00 | 0.00 | 51 | 1004.7 |
| 20260507131003 | 69 | 191 | 4.0 | 4.0 | 0.00 | 0.00 | 0.00 | 51 | 1004.7 |
| 20260507130904 | 69 | 184 | 4.0 | 4.0 | 0.00 | 0.00 | 0.00 | 51 | 1004.7 |
| 20260507130804 | 69 | 181 | 4.0 | 4.0 | 0.00 | 0.00 | 0.00 | 51 | 1004.8 |
| 20260507130705 | 69 | 168 | 4.0 | 4.0 | 0.00 | 0.00 | 0.00 | 51 | 1004.7 |
| 20260507130604 | 69 | 169 | 4.0 | 4.0 | 0.00 | 0.00 | 0.00 | 51 | 1004.8 |
| 20260507130504 | 69 | 174 | 4.0 | 5.0 | 0.00 | 0.00 | 0.00 | 51 | 1004.8 |
| 20260507130404 | 69 | 175 | 4.0 | 5.0 | 0.00 | 0.00 | 0.00 | 51 | 1004.8 |
| 20260507130304 | 69 | 176 | 4.0 | 5.0 | 0.00 | 0.00 | 0.00 | 51 | 1004.8 |
| 20260507130204 | 69 | 188 | 4.0 | 5.0 | 0.00 | 0.00 | 0.00 | 51 | 1004.8 |
| 20260507130103 | 69 | 221 | 4.0 | 5.0 | 0.00 | 0.00 | 0.00 | 51 | 1004.8 |
| 20260507130004 | 69 | 317 | 4.0 | 6.0 | 0.00 | 0.00 | 0.00 | 51 | 1004.8 |
| 20260507125904 | 69 | 321 | 4.0 | 6.0 | 0.00 | 0.00 | 0.00 | 51 | 1004.9 |
| 20260507125803 | 69 | 283 | 4.0 | 6.0 | 0.00 | 0.00 | 0.00 | 52 | 1004.8 |
| 20260507125703 | 69 | 278 | 4.0 | 6.0 | 0.00 | 0.00 | 0.00 | 52 | 1004.9 |
| 20260507125603 | 69 | 267 | 4.0 | 6.0 | 0.00 | 0.00 | 0.00 | 52 | 1004.9 |
| 20260507125503 | 68 | 299 | 4.0 | 6.0 | 0.00 | 0.00 | 0.00 | 52 | 1004.6 |
| 20260507125403 | 68 | 303 | 4.0 | 6.0 | 0.00 | 0.00 | 0.00 | 52 | 1004.7 |
| 20260507125306 | 68 | 301 | 4.0 | 6.0 | 0.00 | 0.00 | 0.00 | 52 | 1004.8 |
| 20260507125203 | 68 | 305 | 4.0 | 6.0 | 0.00 | 0.00 | 0.00 | 52 | 1004.8 |
| 20260507125103 | 67 | 303 | 4.0 | 6.0 | 0.00 | 0.00 | 0.00 | 53 | 1004.6 |
| 20260507125003 | 67 | 280 | 4.0 | 4.0 | 0.00 | 0.00 | 0.00 | 53 | 1004.7 |
| 20260507124903 | 67 | 269 | 4.0 | 4.0 | 0.00 | 0.00 | 0.00 | 53 | 1004.7 |
| 20260507124803 | 67 | 275 | 4.0 | 4.0 | 0.00 | 0.00 | 0.00 | 53 | 1004.7 |
| 20260507124704 | 67 | 287 | 4.0 | 4.0 | 0.00 | 0.00 | 0.00 | 53 | 1004.8 |
| 20260507124604 | 67 | 303 | 4.0 | 7.0 | 0.00 | 0.00 | 0.00 | 53 | 1004.8 |
| 20260507124504 | 66 | 293 | 4.0 | 7.0 | 0.00 | 0.00 | 0.00 | 53 | 1004.8 |
| 20260507124404 | 66 | 295 | 5.0 | 7.0 | 0.00 | 0.00 | 0.00 | 53 | 1004.8 |
| 20260507124304 | 66 | 301 | 5.0 | 7.0 | 0.00 | 0.00 | 0.00 | 53 | 1004.8 |
| 20260507124204 | 66 | 298 | 5.0 | 7.0 | 0.00 | 0.00 | 0.00 | 54 | 1004.9 |
| 20260507124104 | 66 | 292 | 5.0 | 7.0 | 0.00 | 0.00 | 0.00 | 54 | 1005.0 |
| 20260507124004 | 66 | 297 | 5.0 | 7.0 | 0.00 | 0.00 | 0.00 | 54 | 1004.9 |
| 20260507123903 | 66 | 298 | 5.0 | 7.0 | 0.00 | 0.00 | 0.00 | 54 | 1005.0 |
| 20260507123804 | 65 | 298 | 5.0 | 7.0 | 0.00 | 0.00 | 0.00 | 54 | 1005.1 |
| 20260507123703 | 65 | 288 | 6.0 | 7.0 | 0.00 | 0.00 | 0.00 | 54 | 1005.0 |
| 20260507123603 | 65 | 286 | 6.0 | 7.0 | 0.00 | 0.00 | 0.00 | 54 | 1005.0 |
| 20260507123503 | 65 | 285 | 6.0 | 7.0 | 0.00 | 0.00 | 0.00 | 54 | 1005.0 |
| 20260507123403 | 65 | 285 | 5.0 | 7.0 | 0.00 | 0.00 | 0.00 | 54 | 1005.0 |
| 20260507123303 | 65 | 277 | 5.0 | 7.0 | 0.00 | 0.00 | 0.00 | 53 | 1005.2 |
| 20260507123203 | 65 | 283 | 6.0 | 7.0 | 0.00 | 0.00 | 0.00 | 53 | 1005.1 |
| 20260507123103 | 65 | 286 | 6.0 | 7.0 | 0.00 | 0.00 | 0.00 | 53 | 1005.1 |
| 20260507123003 | 65 | 287 | 6.0 | 7.0 | 0.00 | 0.00 | 0.00 | 53 | 1005.1 |
| 20260507122903 | 65 | 288 | 6.0 | 7.0 | 0.00 | 0.00 | 0.00 | 53 | 1005.2 |
| 20260507122803 | 64 | 291 | 6.0 | 7.0 | 0.00 | 0.00 | 0.00 | 53 | 1005.2 |
| 20260507122705 | 64 | 297 | 6.0 | 7.0 | 0.00 | 0.00 | 0.00 | 53 | 1005.1 |
| 20260507122604 | 64 | 294 | 6.0 | 7.0 | 0.00 | 0.00 | 0.00 | 53 | 1005.1 |
| 20260507122504 | 64 | 299 | 6.0 | 7.0 | 0.00 | 0.00 | 0.00 | 53 | 1005.1 |
| 20260507122404 | 64 | 292 | 6.0 | 7.0 | 0.00 | 0.00 | 0.00 | 53 | 1005.2 |
| 20260507122307 | 64 | 309 | 6.0 | 7.0 | 0.00 | 0.00 | 0.00 | 53 | 1005.3 |
| 20260507122204 | 64 | 308 | 6.0 | 7.0 | 0.00 | 0.00 | 0.00 | 53 | 1005.2 |
| 20260507122104 | 64 | 309 | 5.0 | 7.0 | 0.00 | 0.00 | 0.00 | 53 | 1005.1 |
| 20260507122004 | 64 | 268 | 5.0 | 7.0 | 0.00 | 0.00 | 0.00 | 53 | 1005.3 |
| 20260507121704 | 64 | 292 | 5.0 | 7.0 | 0.00 | 0.00 | 0.00 | 53 | 1005.3 |
| 20260507121604 | 64 | 290 | 5.0 | 7.0 | 0.00 | 0.00 | 0.00 | 53 | 1005.2 |
| 20260507121504 | 64 | 283 | 5.0 | 7.0 | 0.00 | 0.00 | 0.00 | 53 | 1005.2 |
| 20260507121403 | 64 | 276 | 5.0 | 7.0 | 0.00 | 0.00 | 0.00 | 52 | 1005.3 |
| 20260507121303 | 64 | 270 | 5.0 | 7.0 | 0.00 | 0.00 | 0.00 | 52 | 1005.3 |
| 20260507121203 | 65 | 267 | 5.0 | 6.0 | 0.00 | 0.00 | 0.00 | 52 | 1005.3 |
| 20260507121103 | 65 | 263 | 4.0 | 6.0 | 0.00 | 0.00 | 0.00 | 52 | 1005.3 |
| 20260507121003 | 65 | 255 | 4.0 | 6.0 | 0.00 | 0.00 | 0.00 | 52 | 1005.2 |
| 20260507120903 | 65 | 260 | 3.0 | 5.0 | 0.00 | 0.00 | 0.00 | 52 | 1005.3 |
| 20260507120803 | 65 | 261 | 3.0 | 5.0 | 0.00 | 0.00 | 0.00 | 52 | 1005.2 |
| 20260507120703 | 65 | 253 | 2.0 | 5.0 | 0.00 | 0.00 | 0.00 | 52 | 1005.1 |
| 20260507120603 | 65 | 244 | 2.0 | 5.0 | 0.00 | 0.00 | 0.00 | 52 | 1005.1 |
| 20260507120504 | 65 | 247 | 2.0 | 5.0 | 0.00 | 0.00 | 0.00 | 52 | 1005.2 |
| 20260507120404 | 65 | 247 | 2.0 | 5.0 | 0.00 | 0.00 | 0.00 | 52 | 1005.3 |
| 20260507120304 | 65 | 237 | 2.0 | 5.0 | 0.00 | 0.00 | 0.00 | 51 | 1005.1 |
| 20260507120204 | 65 | 252 | 2.0 | 4.0 | 0.00 | 0.00 | 0.00 | 51 | 1005.3 |
| 20260507120104 | 65 | 252 | 2.0 | 4.0 | 0.00 | 0.00 | 0.00 | 51 | 1005.2 |
| 20260507120004 | 65 | 253 | 2.0 | 4.0 | 0.00 | 0.00 | 0.00 | 51 | 1005.2 |
| 20260507115904 | 65 | 245 | 2.0 | 4.0 | 0.00 | 0.00 | 0.00 | 51 | 1005.3 |
| 20260507115804 | 66 | 244 | 2.0 | 4.0 | 0.00 | 0.00 | 0.00 | 51 | 1005.2 |
| 20260507115704 | 66 | 243 | 2.0 | 4.0 | 0.00 | 0.00 | 0.00 | 51 | 1005.1 |
| 20260507115604 | 66 | 240 | 2.0 | 4.0 | 0.00 | 0.00 | 0.00 | 51 | 1005.1 |
| 20260507115504 | 66 | 241 | 2.0 | 4.0 | 0.00 | 0.00 | 0.00 | 51 | 1005.2 |
| 20260507115404 | 66 | 238 | 2.0 | 4.0 | 0.00 | 0.00 | 0.00 | 51 | 1005.1 |
| 20260507115307 | 66 | 241 | 1.0 | 4.0 | 0.00 | 0.00 | 0.00 | 51 | 1005.0 |
| 20260507115204 | 67 | 238 | 1.0 | 4.0 | 0.00 | 0.00 | 0.00 | 51 | 1005.2 |
| 20260507115104 | 67 | 224 | 1.0 | 3.0 | 0.00 | 0.00 | 0.00 | 52 | 1005.2 |
| 20260507115003 | 67 | 180 | 0.0 | 3.0 | 0.00 | 0.00 | 0.00 | 52 | 1005.1 |
| 20260507114903 | 67 | 180 | 0.0 | 1.0 | 0.00 | 0.00 | 0.00 | 52 | 1005.2 |
| 20260507114803 | 67 | 0 | 0.0 | 0.0 | 0.00 | 0.00 | 0.00 | 52 | 1005.0 |
| 20260507114704 | 67 | 0 | 0.0 | 0.0 | 0.00 | 0.00 | 0.00 | 52 | 1005.2 |
| 20260507114603 | 68 | 0 | 0.0 | 0.0 | 0.00 | 0.00 | 0.00 | 52 | 1005.1 |
| 20260507114503 | 68 | 0 | 0.0 | 0.0 | 0.00 | 0.00 | 0.00 | 52 | 1005.2 |
| 20260507114403 | 68 | 0 | 0.0 | 0.0 | 0.00 | 0.00 | 0.00 | 52 | 1005.2 |
| 20260507114303 | 68 | 0 | 0.0 | 0.0 | 0.00 | 0.00 | 0.00 | 52 | 1005.2 |
| 20260507114203 | 68 | 0 | 0.0 | 0.0 | 0.00 | 0.00 | 0.00 | 51 | 1005.0 |
| 20260507114103 | 68 | 0 | 0.0 | 0.0 | 0.00 | 0.00 | 0.00 | 51 | 1005.2 |
| 20260507114003 | 68 | 0 | 0.0 | 0.0 | 0.00 | 0.00 | 0.00 | 51 | 1005.2 |
| 20260507113903 | 68 | 218 | 0.0 | 2.0 | 0.00 | 0.00 | 0.00 | 51 | 1005.2 |
| 20260507113804 | 69 | 205 | 0.0 | 2.0 | 0.00 | 0.00 | 0.00 | 51 | 1005.2 |
| 20260507113704 | 69 | 205 | 0.0 | 2.0 | 0.00 | 0.00 | 0.00 | 51 | 1005.1 |
| 20260507113604 | 69 | 205 | 0.0 | 2.0 | 0.00 | 0.00 | 0.00 | 50 | 1005.1 |
| 20260507113504 | 69 | 205 | 0.0 | 2.0 | 0.00 | 0.00 | 0.00 | 50 | 1005.2 |
| 20260507113404 | 69 | 210 | 0.0 | 3.0 | 0.00 | 0.00 | 0.00 | 50 | 1005.2 |
| 20260507113304 | 69 | 217 | 1.0 | 3.0 | 0.00 | 0.00 | 0.00 | 50 | 1005.1 |
| 20260507113204 | 69 | 217 | 1.0 | 3.0 | 0.00 | 0.00 | 0.00 | 50 | 1005.2 |
| 20260507113104 | 69 | 217 | 1.0 | 3.0 | 0.00 | 0.00 | 0.00 | 50 | 1005.3 |
| 20260507113004 | 70 | 217 | 1.0 | 3.0 | 0.00 | 0.00 | 0.00 | 50 | 1005.4 |
| 20260507112904 | 70 | 217 | 1.0 | 3.0 | 0.00 | 0.00 | 0.00 | 50 | 1005.3 |
| 20260507112804 | 70 | 225 | 1.0 | 3.0 | 0.00 | 0.00 | 0.00 | 49 | 1005.2 |
| 20260507112704 | 70 | 225 | 1.0 | 3.0 | 0.00 | 0.00 | 0.00 | 49 | 1005.1 |
| 20260507112603 | 70 | 225 | 1.0 | 3.0 | 0.00 | 0.00 | 0.00 | 48 | 1005.3 |
| 20260507112504 | 70 | 225 | 1.0 | 3.0 | 0.00 | 0.00 | 0.00 | 48 | 1005.1 |
| 20260507112403 | 70 | 224 | 1.0 | 3.0 | 0.00 | 0.00 | 0.00 | 48 | 1005.3 |
| 20260507112306 | 70 | 217 | 0.0 | 3.0 | 0.00 | 0.00 | 0.00 | 48 | 1005.3 |
| 20260507112203 | 70 | 194 | 0.0 | 2.0 | 0.00 | 0.00 | 0.00 | 48 | 1005.2 |
| 20260507112103 | 70 | 188 | 0.0 | 2.0 | 0.00 | 0.00 | 0.00 | 48 | 1005.4 |
| 20260507112003 | 70 | 181 | 1.0 | 2.0 | 0.00 | 0.00 | 0.00 | 47 | 1005.3 |
| 20260507111703 | 70 | 235 | 1.0 | 3.0 | 0.00 | 0.00 | 0.00 | 46 | 1005.4 |
| 20260507111603 | 71 | 211 | 2.0 | 4.0 | 0.00 | 0.00 | 0.00 | 46 | 1005.3 |
| 20260507111503 | 71 | 206 | 2.0 | 4.0 | 0.00 | 0.00 | 0.00 | 46 | 1005.4 |
| 20260507111403 | 71 | 201 | 2.0 | 4.0 | 0.00 | 0.00 | 0.00 | 45 | 1005.4 |
| 20260507111303 | 71 | 198 | 2.0 | 4.0 | 0.00 | 0.00 | 0.00 | 45 | 1005.4 |
| 20260507111204 | 71 | 190 | 2.0 | 4.0 | 0.00 | 0.00 | 0.00 | 45 | 1005.3 |
| 20260507111104 | 71 | 180 | 2.0 | 4.0 | 0.00 | 0.00 | 0.00 | 45 | 1005.3 |
| 20260507111004 | 71 | 163 | 2.0 | 4.0 | 0.00 | 0.00 | 0.00 | 45 | 1005.5 |
| 20260507110904 | 71 | 153 | 1.0 | 4.0 | 0.00 | 0.00 | 0.00 | 45 | 1005.3 |
| 20260507110804 | 71 | 141 | 1.0 | 4.0 | 0.00 | 0.00 | 0.00 | 45 | 1005.5 |
| 20260507110704 | 71 | 147 | 1.0 | 4.0 | 0.00 | 0.00 | 0.00 | 45 | 1005.4 |
| 20260507110603 | 71 | 159 | 1.0 | 3.0 | 0.00 | 0.00 | 0.00 | 44 | 1005.4 |
| 20260507110503 | 71 | 157 | 1.0 | 3.0 | 0.00 | 0.00 | 0.00 | 44 | 1005.5 |
| 20260507110403 | 71 | 157 | 1.0 | 3.0 | 0.00 | 0.00 | 0.00 | 44 | 1005.4 |
| 20260507110303 | 71 | 161 | 1.0 | 3.0 | 0.00 | 0.00 | 0.00 | 44 | 1005.4 |
| 20260507110203 | 71 | 161 | 1.0 | 3.0 | 0.00 | 0.00 | 0.00 | 44 | 1005.5 |
| 20260507110103 | 71 | 162 | 1.0 | 3.0 | 0.00 | 0.00 | 0.00 | 44 | 1005.5 |
| 20260507110003 | 71 | 164 | 1.0 | 3.0 | 0.00 | 0.00 | 0.00 | 44 | 1005.5 |
| 20260507105903 | 71 | 162 | 1.0 | 3.0 | 0.00 | 0.00 | 0.00 | 44 | 1005.5 |
| 20260507105803 | 71 | 162 | 1.0 | 3.0 | 0.00 | 0.00 | 0.00 | 43 | 1005.5 |
| 20260507105703 | 71 | 157 | 1.0 | 3.0 | 0.00 | 0.00 | 0.00 | 43 | 1005.6 |
| 20260507105603 | 72 | 172 | 0.0 | 2.0 | 0.00 | 0.00 | 0.00 | 44 | 1005.5 |
| 20260507105503 | 72 | 180 | 0.0 | 2.0 | 0.00 | 0.00 | 0.00 | 43 | 1005.5 |
| 20260507105404 | 72 | 180 | 0.0 | 2.0 | 0.00 | 0.00 | 0.00 | 43 | 1005.5 |
| 20260507105306 | 72 | 180 | 0.0 | 2.0 | 0.00 | 0.00 | 0.00 | 43 | 1005.6 |
| 20260507105204 | 72 | 180 | 1.0 | 2.0 | 0.00 | 0.00 | 0.00 | 43 | 1005.4 |
| 20260507105104 | 72 | 180 | 1.0 | 2.0 | 0.00 | 0.00 | 0.00 | 43 | 1005.5 |